Darstellungsparameter: Aktuell verwendete Einstellungen:
Skalierung der Graphiken ... ?
xyx+y,   Skalierungsfaktor:      Skalierung: Modus: x, Faktor: 1
Darstellungszeitraum ... ?
Vom - - bis: - -   Zeitraum: 31.05.2017 - 06.06.2017
Min/Max/Avg-Anzeige ... ?
Zeige MMA aktuell
Zeige MMA Monat
Zeige MMA alles
Zeige --A aktuell
Zeige --A Monat
Zeige --A alles
Keine MMA-Anzeige
MMA:
Keine MMA-Graphiken
MMA-Basis: 31.05.2017 - 06.06.2017
Quicknavigation für Darstellung... ?
Tage:      1T, 2T, 3T, 5T -1T -2T -3T -5T +1T +2T +3T +5T
Wochen: 1W, 2W, 3W -1W -2W -3W +1W +2W +3W
Monate: 1M, 3M, 6M -1M -3M -6M +1M +3M +6M
Jahre:    1J, 3J, 5J, 10J -1J -3J -5J -10J +1J +3J +5J +10J
Nutze für die Darstellung ... ?
Originaldaten oder Mittelwerte auf ...
Stundenbasis Tagesbasis Wochenbasis
Monatsbasis Jahresbasis      Datenbasis: Original-Daten
Darstellen als:
Statistik (Auto) Statistik J:M      Darstellung:
Zur Graphik,    zurück zur Übersicht aller Sensoren.
 
Tabellarische Datenbersicht: ?
 
Sensor: Nr:Datum:Temp:Feuchte:
Aussen-T/F 1 31-05-2017 00:04:17 17.8 C 20 %
2 31-05-2017 00:16:17 18 C 20 %
3 31-05-2017 00:28:17 17.9 C 20 %
4 31-05-2017 00:40:17 18 C 20 %
5 31-05-2017 00:52:17 17.9 C 20 %
6 31-05-2017 01:04:17 17.7 C 20 %
7 31-05-2017 01:16:17 17.7 C 20 %
8 31-05-2017 01:28:17 17.8 C 20 %
9 31-05-2017 01:40:17 17.5 C 20 %
10 31-05-2017 01:52:17 17.2 C 20 %
11 31-05-2017 02:04:17 17 C 20 %
12 31-05-2017 02:16:17 16.3 C 20 %
13 31-05-2017 02:28:17 15.5 C 20 %
14 31-05-2017 02:40:17 15.1 C 20 %
15 31-05-2017 02:52:17 15 C 20 %
16 31-05-2017 03:04:17 14.7 C 20 %
17 31-05-2017 03:16:17 14.4 C 20 %
18 31-05-2017 03:28:17 14 C 20 %
19 31-05-2017 03:40:17 13.6 C 20 %
20 31-05-2017 03:52:17 13.4 C 20 %
21 31-05-2017 04:04:18 13.1 C 20 %
22 31-05-2017 04:16:17 12.8 C 20 %
23 31-05-2017 04:28:17 12.7 C 20 %
24 31-05-2017 04:40:17 12.4 C 21 %
25 31-05-2017 04:52:17 12.4 C 24 %
Sensor: Nr:Datum:Temp:Feuchte:
Aussen-T/F 26 31-05-2017 05:04:17 12.4 C 24 %
27 31-05-2017 05:16:18 12.2 C 25 %
28 31-05-2017 05:28:18 12.1 C 25 %
29 31-05-2017 05:40:17 12 C 26 %
30 31-05-2017 05:52:17 12 C 26 %
31 31-05-2017 06:04:17 11.9 C 28 %
32 31-05-2017 06:16:17 11.9 C 28 %
33 31-05-2017 06:28:17 12.2 C 28 %
34 31-05-2017 06:40:17 12.5 C 30 %
35 31-05-2017 06:52:17 12.5 C 30 %
36 31-05-2017 07:04:17 12.5 C 30 %
37 31-05-2017 07:16:17 13.2 C 25 %
38 31-05-2017 07:28:17 13 C 25 %
39 31-05-2017 07:40:17 13.4 C 26 %
40 31-05-2017 07:52:17 13.5 C 26 %
41 31-05-2017 08:04:17 13.8 C 27 %
42 31-05-2017 08:16:17 14 C 26 %
43 31-05-2017 08:28:17 14.7 C 24 %
44 31-05-2017 08:40:17 15.3 C 20 %
45 31-05-2017 08:52:17 15.7 C 20 %
46 31-05-2017 09:04:17 16.3 C 20 %
47 31-05-2017 09:16:17 17.2 C 20 %
48 31-05-2017 09:28:17 18.3 C 20 %
49 31-05-2017 09:40:17 19.7 C 20 %
50 31-05-2017 09:52:17 20.1 C 20 %
Sensor: Nr:Datum:Temp:Feuchte:
Aussen-T/F 51 31-05-2017 10:04:17 20.3 C 20 %
52 31-05-2017 10:16:17 20.2 C 20 %
53 31-05-2017 10:28:17 20.7 C 20 %
54 31-05-2017 10:40:17 21.6 C 20 %
55 31-05-2017 10:52:17 21.5 C 20 %
56 31-05-2017 11:04:17 22.8 C 20 %
57 31-05-2017 11:16:17 23.2 C 20 %
58 31-05-2017 11:28:17 22.8 C 20 %
59 31-05-2017 11:40:17 22.9 C 20 %
60 31-05-2017 11:52:17 24 C 20 %
61 31-05-2017 12:04:17 23.7 C 20 %
62 31-05-2017 12:16:17 23.9 C 20 %
63 31-05-2017 12:28:17 23.2 C 20 %
64 31-05-2017 12:40:17 23 C 20 %
65 31-05-2017 12:52:17 23.8 C 20 %
66 31-05-2017 13:04:17 24.4 C 20 %
67 31-05-2017 13:16:17 24.1 C 20 %
68 31-05-2017 13:28:17 24.2 C 20 %
69 31-05-2017 13:40:17 23.8 C 20 %
70 31-05-2017 13:52:17 24.3 C 20 %
71 31-05-2017 14:04:17 24.4 C 20 %
72 31-05-2017 14:16:17 26.5 C 20 %
73 31-05-2017 14:28:17 25.9 C 20 %
74 31-05-2017 14:40:17 29.8 C 20 %
75 31-05-2017 14:52:17 28.4 C 20 %
Sensor: Nr:Datum:Temp:Feuchte:
Aussen-T/F 76 31-05-2017 15:04:17 29.7 C 20 %
77 31-05-2017 15:17:17 29.3 C 20 %
78 31-05-2017 15:29:17 28.4 C 20 %
79 31-05-2017 15:40:17 28.2 C 20 %
80 31-05-2017 15:52:17 28.3 C 20 %
81 31-05-2017 16:04:17 27.2 C 20 %
82 31-05-2017 16:16:17 28.3 C 20 %
83 31-05-2017 16:28:17 29 C 20 %
84 31-05-2017 16:40:18 30.1 C 20 %
85 31-05-2017 16:52:17 30.2 C 20 %
86 31-05-2017 17:04:17 27.5 C 20 %
87 31-05-2017 17:16:17 26.9 C 20 %
88 31-05-2017 17:28:17 27.8 C 20 %
89 31-05-2017 17:40:17 31 C 20 %
90 31-05-2017 17:52:17 30.5 C 20 %
91 31-05-2017 18:04:17 37.5 C 20 %
92 31-05-2017 18:16:17 32 C 20 %
93 31-05-2017 18:28:17 28.3 C 20 %
94 31-05-2017 18:40:17 27.1 C 20 %
95 31-05-2017 18:52:17 26.3 C 20 %
96 31-05-2017 19:04:18 28.3 C 20 %
97 31-05-2017 19:16:17 26.3 C 20 %
98 31-05-2017 19:28:17 26.3 C 20 %
99 31-05-2017 19:40:17 26.3 C 20 %
100 31-05-2017 19:53:17 25.1 C 20 %
Sensor: Nr:Datum:Temp:Feuchte:
Aussen-T/F 101 31-05-2017 20:04:17 24.2 C 20 %
102 31-05-2017 20:16:17 23.4 C 20 %
103 31-05-2017 20:28:17 23.4 C 20 %
104 31-05-2017 20:41:17 23.4 C 20 %
105 31-05-2017 20:53:17 21.3 C 20 %
106 31-05-2017 21:04:17 19.8 C 20 %
107 31-05-2017 21:16:17 19.1 C 20 %
108 31-05-2017 21:28:17 18.5 C 20 %
109 31-05-2017 21:40:17 18.1 C 20 %
110 31-05-2017 21:52:17 17.5 C 20 %
111 31-05-2017 22:05:17 17.2 C 20 %
112 31-05-2017 22:16:17 17 C 20 %
113 31-05-2017 22:28:17 16.9 C 20 %
114 31-05-2017 22:40:18 16.6 C 20 %
115 31-05-2017 22:53:17 16 C 20 %
116 31-05-2017 23:05:17 15.6 C 20 %
117 31-05-2017 23:17:17 15.4 C 20 %
118 31-05-2017 23:29:17 14.8 C 20 %
119 31-05-2017 23:41:17 14.8 C 20 %
120 31-05-2017 23:53:17 14.5 C 20 %
121 01-06-2017 00:04:17 14.4 C 20 %
122 01-06-2017 00:17:17 14.5 C 20 %
123 01-06-2017 00:29:17 14.3 C 20 %
124 01-06-2017 00:40:17 14 C 20 %
125 01-06-2017 00:53:17 13.8 C 20 %
Sensor: Nr:Datum:Temp:Feuchte:
Aussen-T/F 126 01-06-2017 01:05:17 13.6 C 20 %
127 01-06-2017 01:17:17 13.4 C 23 %
128 01-06-2017 01:29:17 13.4 C 23 %
129 01-06-2017 01:41:18 13.1 C 25 %
130 01-06-2017 01:53:17 13 C 26 %
131 01-06-2017 02:05:17 13 C 26 %
132 01-06-2017 02:17:17 12.9 C 28 %
133 01-06-2017 02:29:17 12.8 C 28 %
134 01-06-2017 02:41:17 12.7 C 28 %
135 01-06-2017 02:53:17 12.6 C 29 %
136 01-06-2017 03:05:17 12.5 C 30 %
137 01-06-2017 03:17:17 12.5 C 30 %
138 01-06-2017 03:29:17 12.4 C 30 %
139 01-06-2017 03:41:17 12.1 C 30 %
140 01-06-2017 03:53:17 12 C 31 %
141 01-06-2017 04:05:17 11.9 C 32 %
142 01-06-2017 04:17:18 12 C 31 %
143 01-06-2017 04:29:18 12 C 32 %
144 01-06-2017 04:41:17 11.8 C 33 %
145 01-06-2017 04:53:17 11.7 C 33 %
146 01-06-2017 05:05:17 11.6 C 34 %
147 01-06-2017 05:17:17 11.6 C 35 %
148 01-06-2017 05:29:17 11.5 C 34 %
149 01-06-2017 05:41:17 11.6 C 35 %
150 01-06-2017 05:53:17 11.7 C 36 %
Sensor: Nr:Datum:Temp:Feuchte:
Aussen-T/F 151 01-06-2017 06:05:17 11.6 C 35 %
152 01-06-2017 06:17:17 11.6 C 35 %
153 01-06-2017 06:29:17 11.6 C 35 %
154 01-06-2017 06:41:17 11.9 C 36 %
155 01-06-2017 06:53:17 11.9 C 36 %
156 01-06-2017 07:05:17 12.6 C 35 %
157 01-06-2017 07:17:17 12.8 C 35 %
158 01-06-2017 07:29:17 12.8 C 35 %
159 01-06-2017 07:41:17 13.1 C 33 %
160 01-06-2017 07:53:17 13.1 C 33 %
161 01-06-2017 08:05:17 13.1 C 33 %
162 01-06-2017 08:17:17 14 C 30 %
163 01-06-2017 08:29:17 14.2 C 29 %
164 01-06-2017 08:41:17 14.8 C 27 %
165 01-06-2017 08:53:17 15.8 C 25 %
166 01-06-2017 09:05:17 15.9 C 24 %
167 01-06-2017 09:17:17 17.5 C 20 %
168 01-06-2017 09:29:17 18.6 C 20 %
169 01-06-2017 09:41:17 18.9 C 20 %
170 01-06-2017 09:53:17 20.2 C 20 %
171 01-06-2017 10:05:17 20.2 C 20 %
172 01-06-2017 10:17:18 20.2 C 20 %
173 01-06-2017 10:29:18 22.6 C 20 %
174 01-06-2017 10:41:17 22.6 C 20 %
175 01-06-2017 10:53:17 22.6 C 20 %
Sensor: Nr:Datum:Temp:Feuchte:
Aussen-T/F 176 01-06-2017 11:05:17 22.9 C 20 %
177 01-06-2017 11:17:17 22.9 C 20 %
178 01-06-2017 11:29:17 23.1 C 20 %
179 01-06-2017 11:41:17 23.4 C 20 %
180 01-06-2017 11:53:17 23.5 C 20 %
181 01-06-2017 12:05:17 23.2 C 20 %
182 01-06-2017 12:17:17 23.3 C 20 %
183 01-06-2017 12:29:17 23.5 C 20 %
184 01-06-2017 12:41:17 23.4 C 20 %
185 01-06-2017 12:53:17 24 C 20 %
186 01-06-2017 13:05:17 23.7 C 20 %
187 01-06-2017 13:17:17 23.9 C 20 %
188 01-06-2017 13:29:17 24.1 C 20 %
189 01-06-2017 13:41:17 24.5 C 20 %
190 01-06-2017 13:53:17 24.5 C 20 %
191 01-06-2017 14:05:17 23.8 C 20 %
192 01-06-2017 14:17:18 25.7 C 20 %
193 01-06-2017 14:29:18 28 C 20 %
194 01-06-2017 14:41:18 29.8 C 20 %
195 01-06-2017 14:53:17 33.8 C 20 %
196 01-06-2017 15:05:17 34.8 C 20 %
197 01-06-2017 15:17:17 35.1 C 20 %
198 01-06-2017 15:29:17 32.6 C 20 %
199 01-06-2017 15:41:18 31.4 C 20 %
200 01-06-2017 15:53:17 30.5 C 20 %
Sensor: Nr:Datum:Temp:Feuchte:
Aussen-T/F 201 01-06-2017 16:05:17 30.8 C 20 %
202 01-06-2017 16:17:17 30.2 C 20 %
203 01-06-2017 16:29:17 30.5 C 20 %
204 01-06-2017 16:41:17 32.2 C 20 %
205 01-06-2017 16:53:16 35.8 C 20 %
206 01-06-2017 17:05:17 34.8 C 20 %
207 01-06-2017 17:17:17 34.2 C 20 %
208 01-06-2017 17:29:17 32.6 C 20 %
209 01-06-2017 17:41:17 36.5 C 20 %
210 01-06-2017 17:53:17 32.4 C 20 %
211 01-06-2017 18:05:17 30.3 C 20 %
212 01-06-2017 18:17:17 31.7 C 20 %
213 01-06-2017 18:29:17 30.6 C 20 %
214 01-06-2017 18:41:17 28.5 C 20 %
215 01-06-2017 18:53:17 27.7 C 20 %
216 01-06-2017 19:05:17 27.7 C 20 %
217 01-06-2017 19:17:17 26.4 C 20 %
218 01-06-2017 19:29:17 24.6 C 20 %
219 01-06-2017 19:41:17 23.9 C 20 %
220 01-06-2017 19:53:17 23.4 C 20 %
221 01-06-2017 20:05:17 23 C 20 %
222 01-06-2017 20:17:17 22.7 C 20 %
223 01-06-2017 20:29:17 22.4 C 20 %
224 01-06-2017 20:41:17 22.2 C 20 %
225 01-06-2017 20:53:17 22.1 C 20 %
Sensor: Nr:Datum:Temp:Feuchte:
Aussen-T/F 226 01-06-2017 21:05:17 21.8 C 20 %
227 01-06-2017 21:17:17 20.9 C 20 %
228 01-06-2017 21:29:17 20.2 C 20 %
229 01-06-2017 21:41:18 19.7 C 20 %
230 01-06-2017 21:53:17 19.3 C 20 %
231 01-06-2017 22:05:17 19.2 C 20 %
232 01-06-2017 22:17:17 18.8 C 20 %
233 01-06-2017 22:29:17 18.6 C 20 %
234 01-06-2017 22:41:17 18.1 C 20 %
235 01-06-2017 22:53:17 17.8 C 20 %
236 01-06-2017 23:05:17 17.5 C 20 %
237 01-06-2017 23:17:17 17.1 C 20 %
238 01-06-2017 23:29:17 16.8 C 20 %
239 01-06-2017 23:41:17 16.5 C 20 %
240 01-06-2017 23:53:17 16.3 C 20 %
241 02-06-2017 00:05:17 16.1 C 20 %
242 02-06-2017 00:17:17 16 C 20 %
243 02-06-2017 00:29:17 15.7 C 20 %
244 02-06-2017 00:41:17 15.5 C 20 %
245 02-06-2017 00:53:17 15.4 C 20 %
246 02-06-2017 01:05:17 15.2 C 20 %
247 02-06-2017 01:17:17 15.1 C 20 %
248 02-06-2017 01:29:17 14.9 C 20 %
249 02-06-2017 01:41:17 14.9 C 21 %
250 02-06-2017 01:53:17 14.6 C 22 %
Sensor: Nr:Datum:Temp:Feuchte:
Aussen-T/F 251 02-06-2017 02:05:17 14.5 C 23 %
252 02-06-2017 02:17:17 14.4 C 25 %
253 02-06-2017 02:29:17 14.2 C 25 %
254 02-06-2017 02:41:17 14.2 C 25 %
255 02-06-2017 02:53:17 14 C 25 %
256 02-06-2017 03:05:18 14 C 26 %
257 02-06-2017 03:17:16 13.8 C 27 %
258 02-06-2017 03:29:17 13.7 C 27 %
259 02-06-2017 03:41:17 13.6 C 28 %
260 02-06-2017 03:53:17 13.7 C 29 %
261 02-06-2017 04:05:17 13.5 C 29 %
262 02-06-2017 04:17:17 13.5 C 29 %
263 02-06-2017 04:29:17 13.8 C 30 %
264 02-06-2017 04:41:17 14.2 C 30 %
265 02-06-2017 04:53:17 14.7 C 30 %
266 02-06-2017 05:05:17 15.1 C 28 %
267 02-06-2017 05:17:17 15.3 C 25 %
268 02-06-2017 05:29:17 15.3 C 25 %
269 02-06-2017 05:41:17 15.3 C 25 %
270 02-06-2017 05:53:17 15.3 C 25 %
271 02-06-2017 06:05:17 15.5 C 25 %
272 02-06-2017 06:17:17 15.2 C 24 %
273 02-06-2017 06:29:17 14.8 C 25 %
274 02-06-2017 06:41:17 14.5 C 26 %
275 02-06-2017 06:53:17 14.6 C 27 %
Sensor: Nr:Datum:Temp:Feuchte:
Aussen-T/F 276 02-06-2017 07:05:17 14.7 C 28 %
277 02-06-2017 07:17:17 14.7 C 28 %
278 02-06-2017 07:29:17 15.3 C 28 %
279 02-06-2017 07:41:17 16 C 28 %
280 02-06-2017 07:53:17 16.7 C 26 %
281 02-06-2017 08:05:17 17.2 C 22 %
282 02-06-2017 08:17:17 17.5 C 20 %
283 02-06-2017 08:29:17 19 C 20 %
284 02-06-2017 08:41:17 20.3 C 20 %
285 02-06-2017 08:53:17 20.4 C 20 %
286 02-06-2017 09:05:17 20.6 C 20 %
287 02-06-2017 09:17:17 20.9 C 20 %
288 02-06-2017 09:29:17 21.7 C 20 %
289 02-06-2017 09:41:17 22.5 C 20 %
290 02-06-2017 09:53:17 22.7 C 20 %
291 02-06-2017 10:05:17 22.8 C 20 %
292 02-06-2017 10:17:17 23.5 C 20 %
293 02-06-2017 10:29:17 24.1 C 20 %
294 02-06-2017 10:41:17 24.8 C 20 %
295 02-06-2017 10:53:16 25.4 C 20 %
296 02-06-2017 11:05:18 25.8 C 20 %
297 02-06-2017 11:17:17 26 C 20 %
298 02-06-2017 11:29:17 26 C 20 %
299 02-06-2017 11:41:17 26 C 20 %
300 02-06-2017 11:53:17 25.4 C 20 %
Sensor: Nr:Datum:Temp:Feuchte:
Aussen-T/F 301 02-06-2017 12:05:17 25.2 C 20 %
302 02-06-2017 12:17:17 25.2 C 20 %
303 02-06-2017 12:29:17 25.3 C 20 %
304 02-06-2017 12:41:17 25.5 C 20 %
305 02-06-2017 12:53:17 26.7 C 20 %
306 02-06-2017 13:05:17 28.9 C 20 %
307 02-06-2017 13:17:17 29.3 C 20 %
308 02-06-2017 13:29:17 29.4 C 20 %
309 02-06-2017 13:41:17 29.3 C 20 %
310 02-06-2017 13:53:17 29 C 20 %
311 02-06-2017 14:05:17 26.8 C 20 %
312 02-06-2017 14:17:17 25.1 C 20 %
313 02-06-2017 14:29:17 24.4 C 20 %
314 02-06-2017 14:41:17 23 C 20 %
315 02-06-2017 14:53:17 20.3 C 21 %
316 02-06-2017 15:05:17 20.1 C 30 %
317 02-06-2017 15:17:17 20.3 C 32 %
318 02-06-2017 15:29:17 21.6 C 32 %
319 02-06-2017 15:41:17 22.2 C 29 %
320 02-06-2017 15:53:17 22.2 C 27 %
321 02-06-2017 16:05:17 22.4 C 27 %
322 02-06-2017 16:17:17 22.1 C 27 %
323 02-06-2017 16:29:17 21.6 C 29 %
324 02-06-2017 16:41:17 21.4 C 30 %
325 02-06-2017 16:53:17 21.3 C 30 %
Sensor: Nr:Datum:Temp:Feuchte:
Aussen-T/F 326 02-06-2017 17:05:17 21.2 C 28 %
327 02-06-2017 17:17:17 21.5 C 28 %
328 02-06-2017 17:29:17 21.9 C 27 %
329 02-06-2017 17:41:17 21.6 C 26 %
330 02-06-2017 17:53:17 21.7 C 26 %
331 02-06-2017 18:05:17 21.9 C 25 %
332 02-06-2017 18:17:17 22 C 21 %
333 02-06-2017 18:29:17 20.9 C 24 %
334 02-06-2017 18:41:17 20.1 C 24 %
335 02-06-2017 18:53:17 19.4 C 26 %
336 02-06-2017 19:05:17 19.3 C 28 %
337 02-06-2017 19:17:17 19.5 C 30 %
338 02-06-2017 19:29:17 19.9 C 30 %
339 02-06-2017 19:41:17 20.9 C 28 %
340 02-06-2017 19:53:17 21.6 C 24 %
341 02-06-2017 20:05:17 20.8 C 25 %
342 02-06-2017 20:17:18 20.2 C 26 %
343 02-06-2017 20:29:18 19.8 C 29 %
344 02-06-2017 20:41:17 19.5 C 30 %
345 02-06-2017 20:53:17 19.2 C 31 %
346 02-06-2017 21:05:18 19.1 C 32 %
347 02-06-2017 21:17:17 19.1 C 33 %
348 02-06-2017 21:29:17 19.1 C 33 %
349 02-06-2017 21:41:17 19.1 C 33 %
350 02-06-2017 21:53:17 19.1 C 33 %
Sensor: Nr:Datum:Temp:Feuchte:
Aussen-T/F 351 02-06-2017 22:05:17 19.1 C 33 %
352 02-06-2017 22:17:17 19.1 C 33 %
353 02-06-2017 22:29:17 19.1 C 33 %
354 02-06-2017 22:41:17 17.2 C 37 %
355 02-06-2017 22:53:17 17.2 C 37 %
356 02-06-2017 23:05:17 17.2 C 37 %
357 02-06-2017 23:17:17 17.2 C 38 %
358 02-06-2017 23:29:17 17 C 37 %
359 02-06-2017 23:41:17 16.8 C 38 %
360 02-06-2017 23:53:17 16.7 C 38 %
361 03-06-2017 00:05:17 16.6 C 39 %
362 03-06-2017 00:17:17 16.5 C 39 %
363 03-06-2017 00:29:17 16.3 C 39 %
364 03-06-2017 00:41:17 16.2 C 39 %
365 03-06-2017 00:53:17 16.2 C 40 %
366 03-06-2017 01:05:17 16.2 C 40 %
367 03-06-2017 01:17:17 16 C 40 %
368 03-06-2017 01:29:17 15.8 C 40 %
369 03-06-2017 01:41:17 15.7 C 40 %
370 03-06-2017 01:53:17 15.7 C 41 %
371 03-06-2017 02:05:17 15.8 C 41 %
372 03-06-2017 02:17:17 15.6 C 41 %
373 03-06-2017 02:29:17 15.5 C 41 %
374 03-06-2017 02:41:17 15.3 C 41 %
375 03-06-2017 02:53:17 15.2 C 41 %
Sensor: Nr:Datum:Temp:Feuchte:
Aussen-T/F 376 03-06-2017 03:05:17 15.3 C 43 %
377 03-06-2017 03:17:17 15.8 C 46 %
378 03-06-2017 03:29:17 16.4 C 48 %
379 03-06-2017 03:41:17 16.3 C 47 %
380 03-06-2017 03:53:17 16.2 C 46 %
381 03-06-2017 04:05:17 16 C 44 %
382 03-06-2017 04:17:17 15.6 C 43 %
383 03-06-2017 04:29:17 15.5 C 44 %
384 03-06-2017 04:41:17 15.5 C 44 %
385 03-06-2017 04:53:17 15.8 C 50 %
386 03-06-2017 05:05:17 16 C 51 %
387 03-06-2017 05:17:17 16.3 C 52 %
388 03-06-2017 05:29:17 16.2 C 52 %
389 03-06-2017 05:41:17 16 C 51 %
390 03-06-2017 05:53:17 16.2 C 51 %
391 03-06-2017 06:05:17 16.2 C 52 %
392 03-06-2017 06:17:17 16.2 C 52 %
393 03-06-2017 06:29:17 16.3 C 52 %
394 03-06-2017 06:41:17 16.7 C 53 %
395 03-06-2017 06:53:17 17.1 C 54 %
396 03-06-2017 07:05:17 17.4 C 55 %
397 03-06-2017 07:17:17 17.9 C 56 %
398 03-06-2017 07:29:17 18.1 C 50 %
399 03-06-2017 07:41:17 18.2 C 43 %
400 03-06-2017 07:53:17 18.5 C 43 %
Sensor: Nr:Datum:Temp:Feuchte:
Aussen-T/F 401 03-06-2017 08:05:17 18.6 C 43 %
402 03-06-2017 08:17:17 18.7 C 40 %
403 03-06-2017 08:29:17 18.7 C 40 %
404 03-06-2017 08:41:17 18.7 C 40 %
405 03-06-2017 08:53:17 19 C 36 %
406 03-06-2017 09:05:17 19 C 36 %
407 03-06-2017 09:17:17 19.2 C 33 %
408 03-06-2017 09:29:17 19.2 C 33 %
409 03-06-2017 09:41:17 19.6 C 32 %
410 03-06-2017 09:53:17 20.4 C 28 %
411 03-06-2017 10:05:17 20 C 25 %
412 03-06-2017 10:17:17 19.7 C 25 %
413 03-06-2017 10:29:17 19.7 C 26 %
414 03-06-2017 10:41:17 20.4 C 26 %
415 03-06-2017 10:53:17 20.8 C 26 %
416 03-06-2017 11:05:17 21 C 25 %
417 03-06-2017 11:17:17 22.2 C 25 %
418 03-06-2017 11:29:17 22.5 C 22 %
419 03-06-2017 11:41:17 22.4 C 20 %
420 03-06-2017 11:53:17 22.7 C 20 %
421 03-06-2017 12:05:17 23.3 C 20 %
422 03-06-2017 12:17:17 23.8 C 20 %
423 03-06-2017 12:29:17 24.3 C 20 %
424 03-06-2017 12:41:18 24.8 C 20 %
425 03-06-2017 12:53:17 24.8 C 20 %
Sensor: Nr:Datum:Temp:Feuchte:
Aussen-T/F 426 03-06-2017 13:05:17 26.2 C 20 %
427 03-06-2017 13:17:17 25.1 C 20 %
428 03-06-2017 13:29:17 18.6 C 20 %
429 03-06-2017 13:41:17 18.6 C 30 %
430 03-06-2017 13:53:17 19.2 C 31 %
431 03-06-2017 14:05:17 20.3 C 35 %
432 03-06-2017 14:17:17 19.6 C 32 %
433 03-06-2017 14:29:17 19.1 C 34 %
434 03-06-2017 14:41:17 19.9 C 38 %
435 03-06-2017 14:53:17 23.3 C 36 %
436 03-06-2017 15:05:17 27.1 C 23 %
437 03-06-2017 15:17:17 27.7 C 20 %
438 03-06-2017 15:29:17 25.1 C 20 %
439 03-06-2017 15:41:17 24.3 C 20 %
440 03-06-2017 15:53:17 24.8 C 22 %
441 03-06-2017 16:05:17 24.7 C 22 %
442 03-06-2017 16:17:17 22.8 C 23 %
443 03-06-2017 16:29:17 22.2 C 27 %
444 03-06-2017 16:41:17 22 C 30 %
445 03-06-2017 16:53:17 22.8 C 31 %
446 03-06-2017 17:05:17 23.1 C 29 %
447 03-06-2017 17:17:17 23 C 29 %
448 03-06-2017 17:29:17 23 C 29 %
449 03-06-2017 17:41:17 23 C 29 %
450 03-06-2017 17:53:17 23 C 29 %
Sensor: Nr:Datum:Temp:Feuchte:
Aussen-T/F 451 03-06-2017 18:05:17 23 C 29 %
452 03-06-2017 18:17:17 23.2 C 26 %
453 03-06-2017 18:29:17 23.8 C 26 %
454 03-06-2017 18:41:17 23.1 C 25 %
455 03-06-2017 18:53:17 22.5 C 26 %
456 03-06-2017 19:05:17 21.8 C 28 %
457 03-06-2017 19:17:17 21.4 C 30 %
458 03-06-2017 19:29:17 21.3 C 30 %
459 03-06-2017 19:41:17 21 C 33 %
460 03-06-2017 19:53:17 21 C 33 %
461 03-06-2017 20:05:17 21 C 33 %
462 03-06-2017 20:17:17 21 C 33 %
463 03-06-2017 20:29:17 21 C 33 %
464 03-06-2017 20:41:17 21 C 33 %
465 03-06-2017 20:53:17 21 C 33 %
466 03-06-2017 21:05:17 21 C 33 %
467 03-06-2017 21:17:17 21 C 33 %
468 03-06-2017 21:29:17 18.4 C 38 %
469 03-06-2017 21:41:17 18 C 39 %
470 03-06-2017 21:53:17 17.6 C 40 %
471 03-06-2017 22:05:17 17.4 C 41 %
472 03-06-2017 22:17:17 17.3 C 42 %
473 03-06-2017 22:29:17 17.2 C 44 %
474 03-06-2017 22:41:17 17.1 C 45 %
475 03-06-2017 22:53:17 17 C 47 %
Sensor: Nr:Datum:Temp:Feuchte:
Aussen-T/F 476 03-06-2017 23:05:17 17 C 48 %
477 03-06-2017 23:17:17 16.9 C 52 %
478 03-06-2017 23:29:17 16.8 C 52 %
479 03-06-2017 23:41:17 16.8 C 54 %
480 03-06-2017 23:53:17 16.8 C 57 %
481 04-06-2017 00:05:17 16.7 C 58 %
482 04-06-2017 00:17:17 16.8 C 59 %
483 04-06-2017 00:29:17 16.9 C 60 %
484 04-06-2017 00:41:17 16.6 C 60 %
485 04-06-2017 00:53:17 16.2 C 57 %
486 04-06-2017 01:05:17 16.2 C 57 %
487 04-06-2017 01:17:17 16.3 C 58 %
488 04-06-2017 01:29:17 16 C 58 %
489 04-06-2017 01:41:17 16 C 59 %
490 04-06-2017 01:53:17 16 C 59 %
491 04-06-2017 02:05:17 16 C 59 %
492 04-06-2017 02:17:17 15.4 C 57 %
493 04-06-2017 02:29:17 15.2 C 56 %
494 04-06-2017 02:41:17 15.1 C 56 %
495 04-06-2017 02:53:17 14.9 C 57 %
496 04-06-2017 03:05:17 14.4 C 53 %
497 04-06-2017 03:17:17 14.2 C 52 %
498 04-06-2017 03:29:17 14.2 C 53 %
499 04-06-2017 03:41:17 14.2 C 53 %
500 04-06-2017 03:53:17 14.2 C 54 %
Sensor: Nr:Datum:Temp:Feuchte:
Aussen-T/F 501 04-06-2017 04:05:17 14.1 C 54 %
502 04-06-2017 04:17:18 14.1 C 55 %
503 04-06-2017 04:29:18 14.2 C 56 %
504 04-06-2017 04:41:17 14.1 C 56 %
505 04-06-2017 04:53:17 14 C 55 %
506 04-06-2017 05:05:17 14 C 55 %
507 04-06-2017 05:17:17 13.9 C 57 %
508 04-06-2017 05:29:17 14 C 56 %
509 04-06-2017 05:41:17 13.8 C 57 %
510 04-06-2017 05:53:17 13.8 C 57 %
511 04-06-2017 06:05:17 13.6 C 56 %
512 04-06-2017 06:17:17 13.6 C 58 %
513 04-06-2017 06:29:17 13.7 C 59 %
514 04-06-2017 06:41:17 13.8 C 60 %
515 04-06-2017 06:53:16 13.9 C 60 %
516 04-06-2017 07:05:17 14.1 C 60 %
517 04-06-2017 07:17:17 14.3 C 60 %
518 04-06-2017 07:29:17 14.2 C 59 %
519 04-06-2017 07:41:17 14.3 C 58 %
520 04-06-2017 07:53:17 14.4 C 57 %
521 04-06-2017 08:05:17 14.8 C 57 %
522 04-06-2017 08:17:17 14.5 C 52 %
523 04-06-2017 08:29:17 14.5 C 48 %
524 04-06-2017 08:41:17 14.6 C 48 %
525 04-06-2017 08:53:17 15.1 C 50 %
Sensor: Nr:Datum:Temp:Feuchte:
Aussen-T/F 526 04-06-2017 09:05:17 15.3 C 44 %
527 04-06-2017 09:17:17 15.3 C 44 %
528 04-06-2017 09:29:17 15.4 C 40 %
529 04-06-2017 09:41:17 15.3 C 36 %
530 04-06-2017 09:53:17 15.3 C 36 %
531 04-06-2017 10:05:17 15.3 C 36 %
532 04-06-2017 10:17:17 15.3 C 36 %
533 04-06-2017 10:29:17 17 C 25 %
534 04-06-2017 10:41:17 18.1 C 20 %
535 04-06-2017 10:53:17 18 C 20 %
536 04-06-2017 11:05:17 18.3 C 20 %
537 04-06-2017 11:17:17 18.6 C 20 %
538 04-06-2017 11:29:17 19.5 C 20 %
539 04-06-2017 11:41:18 19.3 C 20 %
540 04-06-2017 11:53:17 19.5 C 20 %
541 04-06-2017 12:05:17 20 C 20 %
542 04-06-2017 12:17:16 20 C 20 %
543 04-06-2017 12:29:16 18.8 C 20 %
544 04-06-2017 12:41:17 17.9 C 20 %
545 04-06-2017 12:53:17 18 C 20 %
546 04-06-2017 13:05:17 18.4 C 20 %
547 04-06-2017 13:17:17 18.9 C 20 %
548 04-06-2017 13:29:17 19.9 C 20 %
549 04-06-2017 13:41:17 20 C 20 %
550 04-06-2017 13:53:17 20.8 C 20 %
Sensor: Nr:Datum:Temp:Feuchte:
Aussen-T/F 551 04-06-2017 14:05:17 20.2 C 20 %
552 04-06-2017 14:17:17 21.5 C 20 %
553 04-06-2017 14:29:17 21.1 C 20 %
554 04-06-2017 14:41:17 21.2 C 20 %
555 04-06-2017 14:53:17 26.2 C 20 %
556 04-06-2017 15:05:17 22.1 C 20 %
557 04-06-2017 15:17:17 21.8 C 20 %
558 04-06-2017 15:29:17 21.7 C 20 %
559 04-06-2017 15:41:17 22.5 C 20 %
560 04-06-2017 15:53:17 23.3 C 20 %
561 04-06-2017 16:05:17 23.7 C 20 %
562 04-06-2017 16:17:17 24.7 C 20 %
563 04-06-2017 16:29:17 25.5 C 20 %
564 04-06-2017 16:41:17 23.8 C 20 %
565 04-06-2017 16:53:17 25.2 C 20 %
566 04-06-2017 17:05:17 26.3 C 20 %
567 04-06-2017 17:17:17 25.5 C 20 %
568 04-06-2017 17:29:17 25.7 C 20 %
569 04-06-2017 17:41:18 25 C 20 %
570 04-06-2017 17:53:17 23.6 C 20 %
571 04-06-2017 18:05:17 21 C 20 %
572 04-06-2017 18:17:17 20 C 20 %
573 04-06-2017 18:29:17 21.6 C 20 %
574 04-06-2017 18:41:17 21.1 C 20 %
575 04-06-2017 18:53:17 20 C 20 %
Sensor: Nr:Datum:Temp:Feuchte:
Aussen-T/F 576 04-06-2017 19:05:18 19 C 20 %
577 04-06-2017 19:17:17 18.5 C 20 %
578 04-06-2017 19:29:17 18.1 C 20 %
579 04-06-2017 19:41:17 17 C 20 %
580 04-06-2017 19:53:17 15.5 C 20 %
581 04-06-2017 20:05:17 14.7 C 25 %
582 04-06-2017 20:17:17 14.3 C 28 %
583 04-06-2017 20:29:17 14.1 C 32 %
584 04-06-2017 20:41:17 13.7 C 34 %
585 04-06-2017 20:53:17 13.8 C 36 %
586 04-06-2017 21:05:17 13.7 C 37 %
587 04-06-2017 21:17:16 13.6 C 38 %
588 04-06-2017 21:29:17 13.7 C 39 %
589 04-06-2017 21:41:17 13.3 C 40 %
590 04-06-2017 21:53:17 13.1 C 40 %
591 04-06-2017 22:05:17 12.7 C 41 %
592 04-06-2017 22:17:17 12.4 C 41 %
593 04-06-2017 22:29:17 12.4 C 42 %
594 04-06-2017 22:41:17 12.4 C 43 %
595 04-06-2017 22:53:17 12.4 C 44 %
596 04-06-2017 23:05:17 12.3 C 43 %
597 04-06-2017 23:17:17 12.2 C 43 %
598 04-06-2017 23:29:17 12 C 44 %
599 04-06-2017 23:41:17 11.9 C 45 %
600 04-06-2017 23:53:17 11.7 C 45 %
Sensor: Nr:Datum:Temp:Feuchte:
Aussen-T/F 601 05-06-2017 00:05:17 11.5 C 45 %
602 05-06-2017 00:17:17 11.5 C 46 %
603 05-06-2017 00:29:17 11.2 C 46 %
604 05-06-2017 00:41:17 11.2 C 46 %
605 05-06-2017 00:53:17 11.2 C 48 %
606 05-06-2017 01:05:17 11.1 C 48 %
607 05-06-2017 01:17:17 11.1 C 50 %
608 05-06-2017 01:29:17 11.1 C 51 %
609 05-06-2017 01:41:17 11.1 C 52 %
610 05-06-2017 01:53:17 11 C 52 %
611 05-06-2017 02:05:17 10.9 C 53 %
612 05-06-2017 02:17:17 10.8 C 54 %
613 05-06-2017 02:29:17 10.8 C 54 %
614 05-06-2017 02:41:17 10.8 C 55 %
615 05-06-2017 02:53:17 10.7 C 56 %
616 05-06-2017 03:05:17 10.6 C 56 %
617 05-06-2017 03:17:17 10.5 C 56 %
618 05-06-2017 03:29:17 10.5 C 57 %
619 05-06-2017 03:41:17 10.4 C 57 %
620 05-06-2017 03:53:17 10.4 C 58 %
621 05-06-2017 04:05:17 10.4 C 58 %
622 05-06-2017 04:17:17 10.4 C 58 %
623 05-06-2017 04:29:17 10.3 C 58 %
624 05-06-2017 04:41:17 10.2 C 58 %
625 05-06-2017 04:53:17 10.2 C 59 %
Sensor: Nr:Datum:Temp:Feuchte:
Aussen-T/F 626 05-06-2017 05:05:17 10.2 C 59 %
627 05-06-2017 05:17:17 10.2 C 59 %
628 05-06-2017 05:29:18 10.2 C 60 %
629 05-06-2017 05:41:17 10.3 C 61 %
630 05-06-2017 05:53:17 10.3 C 61 %
631 05-06-2017 06:05:17 10.2 C 60 %
632 05-06-2017 06:17:17 10.1 C 59 %
633 05-06-2017 06:29:17 10.1 C 59 %
634 05-06-2017 06:41:17 10.4 C 60 %
635 05-06-2017 06:53:17 10.5 C 60 %
636 05-06-2017 07:05:17 10.8 C 61 %
637 05-06-2017 07:17:17 11.1 C 60 %
638 05-06-2017 07:29:17 11.4 C 61 %
639 05-06-2017 07:41:17 11.7 C 62 %
640 05-06-2017 07:53:17 11.9 C 61 %
641 05-06-2017 08:05:17 11.6 C 56 %
642 05-06-2017 08:17:17 12 C 54 %
643 05-06-2017 08:29:17 12.2 C 55 %
644 05-06-2017 08:41:17 12.5 C 53 %
645 05-06-2017 08:53:17 13.1 C 50 %
646 05-06-2017 09:05:17 13.6 C 47 %
647 05-06-2017 09:17:17 14.1 C 43 %
648 05-06-2017 09:29:17 15.1 C 44 %
649 05-06-2017 09:41:17 15.8 C 40 %
650 05-06-2017 09:53:17 17 C 37 %
Sensor: Nr:Datum:Temp:Feuchte:
Aussen-T/F 651 05-06-2017 10:05:17 17.3 C 36 %
652 05-06-2017 10:17:17 17.3 C 25 %
653 05-06-2017 10:29:17 18 C 20 %
654 05-06-2017 10:41:17 18.8 C 20 %
655 05-06-2017 10:53:17 19 C 20 %
656 05-06-2017 11:05:17 19.3 C 20 %
657 05-06-2017 11:17:17 19.6 C 20 %
658 05-06-2017 11:29:17 19.6 C 20 %
659 05-06-2017 11:41:17 19.8 C 20 %
660 05-06-2017 11:53:17 20 C 20 %
661 05-06-2017 12:05:17 20.3 C 20 %
662 05-06-2017 12:17:17 20.5 C 20 %
663 05-06-2017 12:29:17 20.3 C 20 %
664 05-06-2017 12:41:17 20.1 C 20 %
665 05-06-2017 12:53:17 19.5 C 20 %
666 05-06-2017 13:05:17 19.5 C 20 %
667 05-06-2017 13:17:17 19.3 C 20 %
668 05-06-2017 13:29:17 19.2 C 20 %
669 05-06-2017 13:41:18 19.5 C 20 %
670 05-06-2017 13:53:17 19.4 C 20 %
671 05-06-2017 14:05:17 19.7 C 20 %
672 05-06-2017 14:17:17 21.5 C 20 %
673 05-06-2017 14:29:17 22.5 C 20 %
674 05-06-2017 14:41:17 24.4 C 20 %
675 05-06-2017 14:53:17 27.3 C 20 %
Sensor: Nr:Datum:Temp:Feuchte:
Aussen-T/F 676 05-06-2017 15:05:17 29.4 C 20 %
677 05-06-2017 15:17:17 29.6 C 20 %
678 05-06-2017 15:29:17 25.8 C 20 %
679 05-06-2017 15:41:18 25.8 C 20 %
680 05-06-2017 15:53:17 25.5 C 20 %
681 05-06-2017 16:05:17 24.5 C 20 %
682 05-06-2017 16:17:17 25.7 C 20 %
683 05-06-2017 16:29:17 25.8 C 20 %
684 05-06-2017 16:41:17 26.3 C 20 %
685 05-06-2017 16:53:17 29.6 C 20 %
686 05-06-2017 17:05:17 28.5 C 20 %
687 05-06-2017 17:17:17 28.8 C 20 %
688 05-06-2017 17:29:18 30.2 C 20 %
689 05-06-2017 17:41:17 29.2 C 20 %
690 05-06-2017 17:53:17 34.6 C 20 %
691 05-06-2017 18:05:17 39.2 C 20 %
692 05-06-2017 18:17:18 38.6 C 20 %
693 05-06-2017 18:29:18 35.6 C 20 %
694 05-06-2017 18:41:17 35.7 C 20 %
695 05-06-2017 18:53:17 36 C 20 %
696 05-06-2017 19:05:17 36.3 C 20 %
697 05-06-2017 19:17:17 35.7 C 20 %
698 05-06-2017 19:29:17 28 C 20 %
699 05-06-2017 19:41:17 25.6 C 20 %
700 05-06-2017 19:53:17 24.2 C 20 %
Sensor: Nr:Datum:Temp:Feuchte:
Aussen-T/F 701 05-06-2017 20:05:17 22.9 C 20 %
702 05-06-2017 20:17:17 21.2 C 20 %
703 05-06-2017 20:29:17 20 C 20 %
704 05-06-2017 20:41:18 19.4 C 20 %
705 05-06-2017 20:53:17 18.9 C 20 %
706 05-06-2017 21:05:17 18.1 C 20 %
707 05-06-2017 21:17:16 17.4 C 20 %
708 05-06-2017 21:29:17 16.7 C 20 %
709 05-06-2017 21:41:18 16.2 C 20 %
710 05-06-2017 21:53:17 16 C 20 %
711 05-06-2017 22:05:17 15.5 C 20 %
712 05-06-2017 22:17:16 15.2 C 20 %
713 05-06-2017 22:29:17 15.1 C 20 %
714 05-06-2017 22:41:17 14.9 C 21 %
715 05-06-2017 22:53:17 14.8 C 22 %
716 05-06-2017 23:05:17 14.7 C 25 %
717 05-06-2017 23:17:17 14.5 C 25 %
718 05-06-2017 23:29:17 14.4 C 25 %
719 05-06-2017 23:41:17 14.4 C 26 %
720 05-06-2017 23:53:17 14.5 C 27 %
721 06-06-2017 00:05:17 14.5 C 26 %
722 06-06-2017 00:17:16 14.4 C 26 %
723 06-06-2017 00:29:17 14.2 C 26 %
724 06-06-2017 00:41:17 14.1 C 26 %
725 06-06-2017 00:53:17 14.1 C 27 %
Sensor: Nr:Datum:Temp:Feuchte:
Aussen-T/F 726 06-06-2017 01:05:17 14.1 C 27 %
727 06-06-2017 01:17:17 14.4 C 26 %
728 06-06-2017 01:29:17 14 C 25 %
729 06-06-2017 01:41:17 13.4 C 27 %
730 06-06-2017 01:53:17 13.3 C 28 %
731 06-06-2017 02:05:17 13 C 29 %
732 06-06-2017 02:17:17 12.8 C 30 %
733 06-06-2017 02:29:17 12.7 C 31 %
734 06-06-2017 02:41:17 12.6 C 32 %
735 06-06-2017 02:53:17 12.5 C 32 %
736 06-06-2017 03:05:17 12.4 C 33 %
737 06-06-2017 03:17:17 12.4 C 34 %
738 06-06-2017 03:29:17 12.5 C 35 %
739 06-06-2017 03:41:17 12.5 C 35 %
740 06-06-2017 03:53:16 12.4 C 35 %
741 06-06-2017 04:05:17 12.3 C 35 %
742 06-06-2017 04:17:17 12.3 C 35 %
743 06-06-2017 04:29:17 12.2 C 35 %
744 06-06-2017 04:41:17 12.2 C 35 %
745 06-06-2017 04:53:17 12.2 C 35 %
746 06-06-2017 05:05:17 12.2 C 35 %
747 06-06-2017 05:17:17 12.3 C 36 %
748 06-06-2017 05:29:17 12.3 C 35 %
749 06-06-2017 05:41:17 12.2 C 36 %
750 06-06-2017 05:53:17 12.4 C 36 %
Sensor: Nr:Datum:Temp:Feuchte:
Aussen-T/F 751 06-06-2017 06:05:17 12.5 C 35 %
752 06-06-2017 06:17:17 12.5 C 35 %
753 06-06-2017 06:29:17 12.6 C 35 %
754 06-06-2017 06:41:17 13.5 C 35 %
755 06-06-2017 06:53:17 14.2 C 33 %
756 06-06-2017 07:05:17 14.7 C 30 %
757 06-06-2017 07:17:17 14.9 C 26 %
758 06-06-2017 07:29:17 15.6 C 20 %
759 06-06-2017 07:41:17 15.8 C 20 %
760 06-06-2017 07:53:17 16.4 C 20 %
761 06-06-2017 08:05:17 16.9 C 20 %
762 06-06-2017 08:17:17 16.6 C 20 %
763 06-06-2017 08:29:17 16.4 C 20 %
764 06-06-2017 08:41:17 16.8 C 20 %
765 06-06-2017 08:53:17 16.9 C 20 %
766 06-06-2017 09:05:17 16.8 C 20 %
767 06-06-2017 09:17:17 16.5 C 20 %
768 06-06-2017 09:29:17 16.4 C 20 %
769 06-06-2017 09:41:17 17.1 C 20 %
770 06-06-2017 09:53:17 18 C 20 %
771 06-06-2017 10:05:17 18.7 C 20 %
772 06-06-2017 10:17:17 18.8 C 20 %
773 06-06-2017 10:29:17 18.3 C 20 %
774 06-06-2017 10:41:17 17.5 C 20 %
775 06-06-2017 10:53:17 18.4 C 20 %
Sensor: Nr:Datum:Temp:Feuchte:
Aussen-T/F 776 06-06-2017 11:05:17 17.2 C 20 %
777 06-06-2017 11:17:17 17.2 C 20 %
778 06-06-2017 11:29:17 19.1 C 20 %
779 06-06-2017 11:41:17 20.4 C 20 %
780 06-06-2017 11:53:17 19 C 20 %
781 06-06-2017 12:05:17 19 C 20 %
782 06-06-2017 12:17:17 19.8 C 20 %
783 06-06-2017 12:29:17 19.9 C 20 %
784 06-06-2017 12:41:17 18.6 C 20 %
785 06-06-2017 12:53:17 18.1 C 20 %
786 06-06-2017 13:05:17 19.2 C 20 %
787 06-06-2017 13:17:17 19 C 20 %
788 06-06-2017 13:29:17 19.1 C 20 %
789 06-06-2017 13:41:17 19.5 C 20 %
790 06-06-2017 13:53:17 20.1 C 20 %
791 06-06-2017 14:05:17 21 C 20 %
792 06-06-2017 14:17:17 21.1 C 20 %
793 06-06-2017 14:29:17 21.1 C 20 %
794 06-06-2017 14:41:17 23.4 C 20 %
795 06-06-2017 14:53:17 25.9 C 20 %
796 06-06-2017 15:05:17 26.1 C 20 %
797 06-06-2017 15:17:17 26.4 C 20 %
798 06-06-2017 15:29:17 23.5 C 20 %
799 06-06-2017 15:41:17 22.6 C 20 %
800 06-06-2017 15:53:17 22.2 C 20 %
Sensor: Nr:Datum:Temp:Feuchte:
Aussen-T/F 801 06-06-2017 16:05:17 22.1 C 20 %
802 06-06-2017 16:17:18 21.9 C 20 %
803 06-06-2017 16:29:18 19.8 C 20 %
804 06-06-2017 16:41:17 21.3 C 20 %
805 06-06-2017 16:53:17 19.5 C 20 %
806 06-06-2017 17:05:17 17.5 C 20 %
807 06-06-2017 17:17:17 15 C 20 %
808 06-06-2017 17:29:17 13.7 C 20 %
809 06-06-2017 17:41:18 14.3 C 20 %
810 06-06-2017 17:53:17 20.3 C 20 %
811 06-06-2017 18:05:17 25 C 20 %
812 06-06-2017 18:17:17 22.5 C 20 %
813 06-06-2017 18:29:17 21.8 C 20 %
814 06-06-2017 18:41:17 23 C 20 %
815 06-06-2017 18:53:17 24.6 C 20 %
816 06-06-2017 19:05:17 24.9 C 20 %
817 06-06-2017 19:17:17 23.2 C 20 %
818 06-06-2017 19:29:17 18.4 C 20 %
819 06-06-2017 19:41:17 16.8 C 20 %
820 06-06-2017 19:53:17 16.2 C 20 %
821 06-06-2017 20:05:17 15.6 C 20 %
822 06-06-2017 20:17:17 12 C 20 %
823 06-06-2017 20:29:17 11.1 C 20 %
824 06-06-2017 20:41:17 10.7 C 26 %
825 06-06-2017 20:53:17 10.3 C 25 %
Sensor: Nr:Datum:Temp:Feuchte:
Aussen-T/F 826 06-06-2017 21:05:17 10.3 C 21 %
827 06-06-2017 21:17:17 10.4 C 20 %
828 06-06-2017 21:29:17 10.3 C 20 %
829 06-06-2017 21:41:17 10.2 C 21 %
830 06-06-2017 21:53:17 10.1 C 21 %
831 06-06-2017 22:05:17 10.1 C 21 %
832 06-06-2017 22:17:17 10.2 C 20 %
833 06-06-2017 22:29:17 10.4 C 20 %
834 06-06-2017 22:41:17 10.5 C 20 %
835 06-06-2017 22:53:17 10.5 C 20 %
836 06-06-2017 23:05:17 10.3 C 20 %
837 06-06-2017 23:17:17 10.3 C 20 %
838 06-06-2017 23:29:17 10.4 C 20 %
839 06-06-2017 23:41:17 10 C 20 %
840 06-06-2017 23:53:17 9.9 C 20 %
Sensor: Nr:Datum:Temp:Feuchte:
G-T/H 1 31-05-2017 00:04:17 20.5 C 54 %
2 31-05-2017 00:16:17 20.3 C 54 %
3 31-05-2017 00:28:17 20.2 C 54 %
4 31-05-2017 00:40:17 20.2 C 54 %
5 31-05-2017 00:52:17 20.2 C 53 %
6 31-05-2017 01:04:17 20 C 53 %
7 31-05-2017 01:16:17 19.9 C 54 %
8 31-05-2017 01:28:17 19.8 C 54 %
9 31-05-2017 01:40:17 19.8 C 54 %
10 31-05-2017 01:52:17 19.7 C 54 %
11 31-05-2017 02:04:17 19.7 C 54 %
12 31-05-2017 02:16:17 19.4 C 54 %
13 31-05-2017 02:28:17 19.1 C 55 %
14 31-05-2017 02:40:17 18.9 C 56 %
15 31-05-2017 02:52:17 18.8 C 55 %
16 31-05-2017 03:04:17 18.6 C 55 %
17 31-05-2017 03:16:17 18.3 C 54 %
18 31-05-2017 03:28:17 18.1 C 55 %
19 31-05-2017 03:40:17 17.9 C 56 %
20 31-05-2017 03:52:17 17.7 C 56 %
21 31-05-2017 04:04:18 17.6 C 57 %
22 31-05-2017 04:16:17 17.5 C 57 %
23 31-05-2017 04:28:17 17.2 C 58 %
24 31-05-2017 04:40:17 17.1 C 58 %
25 31-05-2017 04:52:17 17 C 58 %
Sensor: Nr:Datum:Temp:Feuchte:
G-T/H 26 31-05-2017 05:04:17 16.9 C 59 %
27 31-05-2017 05:16:18 16.7 C 59 %
28 31-05-2017 05:28:18 16.7 C 59 %
29 31-05-2017 05:40:17 16.6 C 60 %
30 31-05-2017 05:52:17 16.5 C 60 %
31 31-05-2017 06:04:17 16.4 C 61 %
32 31-05-2017 06:16:17 16.3 C 61 %
33 31-05-2017 06:28:17 16.3 C 61 %
34 31-05-2017 06:40:17 16.3 C 62 %
35 31-05-2017 06:52:17 16.4 C 62 %
36 31-05-2017 07:04:17 16.4 C 62 %
37 31-05-2017 07:16:17 16.4 C 62 %
38 31-05-2017 07:28:17 16.4 C 63 %
39 31-05-2017 07:40:17 16.5 C 63 %
40 31-05-2017 07:52:17 16.6 C 63 %
41 31-05-2017 08:04:17 16.7 C 64 %
42 31-05-2017 08:16:17 16.8 C 64 %
43 31-05-2017 08:28:17 17 C 63 %
44 31-05-2017 08:40:17 17.2 C 63 %
45 31-05-2017 08:52:17 17.4 C 63 %
46 31-05-2017 09:04:17 17.5 C 63 %
47 31-05-2017 09:16:17 17.6 C 62 %
48 31-05-2017 09:28:17 17.8 C 62 %
49 31-05-2017 09:40:17 17.9 C 62 %
50 31-05-2017 09:52:17 18 C 61 %
Sensor: Nr:Datum:Temp:Feuchte:
G-T/H 51 31-05-2017 10:04:17 18.1 C 60 %
52 31-05-2017 10:16:17 18.3 C 60 %
53 31-05-2017 10:28:17 18.4 C 59 %
54 31-05-2017 10:40:17 18.6 C 59 %
55 31-05-2017 10:52:17 18.7 C 59 %
56 31-05-2017 11:04:17 18.8 C 58 %
57 31-05-2017 11:16:17 18.9 C 58 %
58 31-05-2017 11:28:17 19 C 56 %
59 31-05-2017 11:40:17 19 C 56 %
60 31-05-2017 11:52:17 19.2 C 55 %
61 31-05-2017 12:04:17 19.2 C 55 %
62 31-05-2017 12:16:17 19.3 C 55 %
63 31-05-2017 12:28:17 19.5 C 55 %
64 31-05-2017 12:40:17 19.5 C 54 %
65 31-05-2017 12:52:17 19.7 C 54 %
66 31-05-2017 13:04:17 19.9 C 54 %
67 31-05-2017 13:16:17 19.9 C 53 %
68 31-05-2017 13:28:17 20.1 C 52 %
69 31-05-2017 13:40:17 20 C 52 %
70 31-05-2017 13:52:17 20.1 C 51 %
71 31-05-2017 14:04:17 20.3 C 51 %
72 31-05-2017 14:16:17 20.5 C 50 %
73 31-05-2017 14:28:17 20.5 C 49 %
74 31-05-2017 14:40:17 20.7 C 49 %
75 31-05-2017 14:52:17 20.8 C 49 %
Sensor: Nr:Datum:Temp:Feuchte:
G-T/H 76 31-05-2017 15:04:17 20.7 C 49 %
77 31-05-2017 15:17:17 20.9 C 49 %
78 31-05-2017 15:29:17 21 C 48 %
79 31-05-2017 15:40:17 21.1 C 48 %
80 31-05-2017 15:52:17 21.2 C 47 %
81 31-05-2017 16:04:17 21.1 C 47 %
82 31-05-2017 16:16:17 21.3 C 46 %
83 31-05-2017 16:28:17 21.5 C 46 %
84 31-05-2017 16:40:18 21.6 C 45 %
85 31-05-2017 16:52:17 21.5 C 45 %
86 31-05-2017 17:04:17 21.5 C 44 %
87 31-05-2017 17:16:17 21.6 C 44 %
88 31-05-2017 17:28:17 21.4 C 44 %
89 31-05-2017 17:40:17 20.9 C 46 %
90 31-05-2017 17:52:17 20.8 C 47 %
91 31-05-2017 18:04:17 20.7 C 48 %
92 31-05-2017 18:16:17 20.6 C 48 %
93 31-05-2017 18:28:17 20.5 C 49 %
94 31-05-2017 18:40:17 20.4 C 50 %
95 31-05-2017 18:52:17 20.4 C 50 %
96 31-05-2017 19:04:18 20.4 C 51 %
97 31-05-2017 19:16:17 20.3 C 51 %
98 31-05-2017 19:28:17 20.3 C 52 %
99 31-05-2017 19:40:17 20.3 C 52 %
100 31-05-2017 19:53:17 20.3 C 52 %
Sensor: Nr:Datum:Temp:Feuchte:
G-T/H 101 31-05-2017 20:04:17 20.3 C 52 %
102 31-05-2017 20:16:17 20.2 C 53 %
103 31-05-2017 20:28:17 20.2 C 53 %
104 31-05-2017 20:41:17 20.2 C 53 %
105 31-05-2017 20:53:17 20.2 C 54 %
106 31-05-2017 21:04:17 20.1 C 54 %
107 31-05-2017 21:16:17 20.1 C 54 %
108 31-05-2017 21:28:17 20 C 55 %
109 31-05-2017 21:40:17 20 C 55 %
110 31-05-2017 21:52:17 20 C 55 %
111 31-05-2017 22:05:17 20 C 55 %
112 31-05-2017 22:16:17 19.9 C 56 %
113 31-05-2017 22:28:17 19.9 C 57 %
114 31-05-2017 22:40:18 19.8 C 57 %
115 31-05-2017 22:53:17 19.8 C 57 %
116 31-05-2017 23:05:17 19.8 C 57 %
117 31-05-2017 23:17:17 19.8 C 57 %
118 31-05-2017 23:29:17 19.7 C 57 %
119 31-05-2017 23:41:17 19.7 C 57 %
120 31-05-2017 23:53:17 19.7 C 58 %
121 01-06-2017 00:04:17 19.7 C 58 %
122 01-06-2017 00:17:17 19.7 C 58 %
123 01-06-2017 00:29:17 19.6 C 58 %
124 01-06-2017 00:40:17 19.6 C 58 %
125 01-06-2017 00:53:17 19.6 C 58 %
Sensor: Nr:Datum:Temp:Feuchte:
G-T/H 126 01-06-2017 01:05:17 19.5 C 58 %
127 01-06-2017 01:17:17 19.5 C 58 %
128 01-06-2017 01:29:17 19.5 C 58 %
129 01-06-2017 01:41:18 19.5 C 58 %
130 01-06-2017 01:53:17 19.4 C 59 %
131 01-06-2017 02:05:17 19.4 C 59 %
132 01-06-2017 02:17:17 19.4 C 59 %
133 01-06-2017 02:29:17 19.3 C 59 %
134 01-06-2017 02:41:17 19.3 C 59 %
135 01-06-2017 02:53:17 19.3 C 59 %
136 01-06-2017 03:05:17 19.3 C 59 %
137 01-06-2017 03:17:17 19.2 C 59 %
138 01-06-2017 03:29:17 19.2 C 59 %
139 01-06-2017 03:41:17 19.2 C 59 %
140 01-06-2017 03:53:17 19.1 C 59 %
141 01-06-2017 04:05:17 19.1 C 59 %
142 01-06-2017 04:17:18 19.1 C 59 %
143 01-06-2017 04:29:18 19 C 59 %
144 01-06-2017 04:41:17 19 C 59 %
145 01-06-2017 04:53:17 19 C 59 %
146 01-06-2017 05:05:17 18.9 C 60 %
147 01-06-2017 05:17:17 18.9 C 60 %
148 01-06-2017 05:29:17 18.9 C 61 %
149 01-06-2017 05:41:17 18.9 C 61 %
150 01-06-2017 05:53:17 18.8 C 61 %
Sensor: Nr:Datum:Temp:Feuchte:
G-T/H 151 01-06-2017 06:05:17 18.8 C 61 %
152 01-06-2017 06:17:17 18.8 C 61 %
153 01-06-2017 06:29:17 18.8 C 61 %
154 01-06-2017 06:41:17 18.7 C 61 %
155 01-06-2017 06:53:17 18.7 C 61 %
156 01-06-2017 07:05:17 18.7 C 61 %
157 01-06-2017 07:17:17 18.6 C 61 %
158 01-06-2017 07:29:17 18.6 C 61 %
159 01-06-2017 07:41:17 18.6 C 61 %
160 01-06-2017 07:53:17 18.6 C 61 %
161 01-06-2017 08:05:17 18.5 C 61 %
162 01-06-2017 08:17:17 18.5 C 61 %
163 01-06-2017 08:29:17 18.5 C 61 %
164 01-06-2017 08:41:17 18.5 C 61 %
165 01-06-2017 08:53:17 18.5 C 61 %
166 01-06-2017 09:05:17 18.5 C 61 %
167 01-06-2017 09:17:17 18.5 C 61 %
168 01-06-2017 09:29:17 18.5 C 61 %
169 01-06-2017 09:41:17 18.4 C 61 %
170 01-06-2017 09:53:17 18.4 C 61 %
171 01-06-2017 10:05:17 18.5 C 61 %
172 01-06-2017 10:17:18 18.4 C 61 %
173 01-06-2017 10:29:18 18.4 C 61 %
174 01-06-2017 10:41:17 18.4 C 61 %
175 01-06-2017 10:53:17 18.4 C 61 %
Sensor: Nr:Datum:Temp:Feuchte:
G-T/H 176 01-06-2017 11:05:17 18.5 C 61 %
177 01-06-2017 11:17:17 18.4 C 61 %
178 01-06-2017 11:29:17 18.4 C 61 %
179 01-06-2017 11:41:17 18.4 C 61 %
180 01-06-2017 11:53:17 18.4 C 61 %
181 01-06-2017 12:05:17 18.5 C 61 %
182 01-06-2017 12:17:17 18.5 C 61 %
183 01-06-2017 12:29:17 18.5 C 61 %
184 01-06-2017 12:41:17 18.5 C 61 %
185 01-06-2017 12:53:17 18.5 C 61 %
186 01-06-2017 13:05:17 18.6 C 61 %
187 01-06-2017 13:17:17 18.6 C 61 %
188 01-06-2017 13:29:17 18.6 C 61 %
189 01-06-2017 13:41:17 18.6 C 61 %
190 01-06-2017 13:53:17 18.7 C 61 %
191 01-06-2017 14:05:17 18.7 C 61 %
192 01-06-2017 14:17:18 18.7 C 61 %
193 01-06-2017 14:29:18 18.7 C 61 %
194 01-06-2017 14:41:18 18.8 C 61 %
195 01-06-2017 14:53:17 18.8 C 61 %
196 01-06-2017 15:05:17 18.9 C 61 %
197 01-06-2017 15:17:17 18.9 C 61 %
198 01-06-2017 15:29:17 19 C 60 %
199 01-06-2017 15:41:18 19 C 60 %
200 01-06-2017 15:53:17 19 C 60 %
Sensor: Nr:Datum:Temp:Feuchte:
G-T/H 201 01-06-2017 16:05:17 19.1 C 60 %
202 01-06-2017 16:17:17 19.1 C 60 %
203 01-06-2017 16:29:17 19.1 C 60 %
204 01-06-2017 16:41:17 19.1 C 60 %
205 01-06-2017 16:53:16 19.2 C 60 %
206 01-06-2017 17:05:17 19.2 C 60 %
207 01-06-2017 17:17:17 19.3 C 60 %
208 01-06-2017 17:29:17 19.3 C 60 %
209 01-06-2017 17:41:17 19.3 C 60 %
210 01-06-2017 17:53:17 19.4 C 60 %
211 01-06-2017 18:05:17 19.4 C 60 %
212 01-06-2017 18:17:17 19.3 C 60 %
213 01-06-2017 18:29:17 19.4 C 60 %
214 01-06-2017 18:41:17 19.4 C 60 %
215 01-06-2017 18:53:17 19.4 C 60 %
216 01-06-2017 19:05:17 19.5 C 60 %
217 01-06-2017 19:17:17 19.5 C 60 %
218 01-06-2017 19:29:17 19.5 C 60 %
219 01-06-2017 19:41:17 19.5 C 61 %
220 01-06-2017 19:53:17 19.5 C 61 %
221 01-06-2017 20:05:17 19.5 C 61 %
222 01-06-2017 20:17:17 19.5 C 61 %
223 01-06-2017 20:29:17 19.5 C 61 %
224 01-06-2017 20:41:17 19.5 C 61 %
225 01-06-2017 20:53:17 19.5 C 61 %
Sensor: Nr:Datum:Temp:Feuchte:
G-T/H 226 01-06-2017 21:05:17 19.5 C 61 %
227 01-06-2017 21:17:17 19.5 C 61 %
228 01-06-2017 21:29:17 19.5 C 62 %
229 01-06-2017 21:41:18 19.5 C 62 %
230 01-06-2017 21:53:17 19.4 C 62 %
231 01-06-2017 22:05:17 19.4 C 62 %
232 01-06-2017 22:17:17 19.5 C 62 %
233 01-06-2017 22:29:17 19.4 C 62 %
234 01-06-2017 22:41:17 19.4 C 62 %
235 01-06-2017 22:53:17 19.3 C 62 %
236 01-06-2017 23:05:17 19.3 C 62 %
237 01-06-2017 23:17:17 19.3 C 62 %
238 01-06-2017 23:29:17 19.3 C 62 %
239 01-06-2017 23:41:17 19.3 C 62 %
240 01-06-2017 23:53:17 19.3 C 62 %
241 02-06-2017 00:05:17 19.3 C 62 %
242 02-06-2017 00:17:17 19.3 C 62 %
243 02-06-2017 00:29:17 19.3 C 62 %
244 02-06-2017 00:41:17 19.2 C 62 %
245 02-06-2017 00:53:17 19.3 C 62 %
246 02-06-2017 01:05:17 19.2 C 62 %
247 02-06-2017 01:17:17 19.2 C 62 %
248 02-06-2017 01:29:17 19.2 C 62 %
249 02-06-2017 01:41:17 19.2 C 62 %
250 02-06-2017 01:53:17 19.1 C 62 %
Sensor: Nr:Datum:Temp:Feuchte:
G-T/H 251 02-06-2017 02:05:17 19.1 C 62 %
252 02-06-2017 02:17:17 19.1 C 62 %
253 02-06-2017 02:29:17 19.1 C 62 %
254 02-06-2017 02:41:17 19.1 C 62 %
255 02-06-2017 02:53:17 19.1 C 62 %
256 02-06-2017 03:05:18 19 C 63 %
257 02-06-2017 03:17:16 19 C 63 %
258 02-06-2017 03:29:17 19 C 63 %
259 02-06-2017 03:41:17 19 C 63 %
260 02-06-2017 03:53:17 18.9 C 64 %
261 02-06-2017 04:05:17 18.9 C 64 %
262 02-06-2017 04:17:17 18.9 C 64 %
263 02-06-2017 04:29:17 18.9 C 64 %
264 02-06-2017 04:41:17 18.9 C 64 %
265 02-06-2017 04:53:17 18.9 C 64 %
266 02-06-2017 05:05:17 18.9 C 64 %
267 02-06-2017 05:17:17 18.8 C 64 %
268 02-06-2017 05:29:17 18.8 C 64 %
269 02-06-2017 05:41:17 18.8 C 64 %
270 02-06-2017 05:53:17 18.8 C 64 %
271 02-06-2017 06:05:17 18.8 C 64 %
272 02-06-2017 06:17:17 18.7 C 64 %
273 02-06-2017 06:29:17 18.7 C 64 %
274 02-06-2017 06:41:17 18.7 C 64 %
275 02-06-2017 06:53:17 18.7 C 64 %
Sensor: Nr:Datum:Temp:Feuchte:
G-T/H 276 02-06-2017 07:05:17 18.7 C 64 %
277 02-06-2017 07:17:17 18.6 C 64 %
278 02-06-2017 07:29:17 18.6 C 64 %
279 02-06-2017 07:41:17 18.6 C 64 %
280 02-06-2017 07:53:17 18.6 C 64 %
281 02-06-2017 08:05:17 18.6 C 64 %
282 02-06-2017 08:17:17 18.6 C 64 %
283 02-06-2017 08:29:17 18.6 C 64 %
284 02-06-2017 08:41:17 18.6 C 64 %
285 02-06-2017 08:53:17 18.6 C 64 %
286 02-06-2017 09:05:17 18.6 C 64 %
287 02-06-2017 09:17:17 18.6 C 64 %
288 02-06-2017 09:29:17 18.6 C 64 %
289 02-06-2017 09:41:17 18.6 C 64 %
290 02-06-2017 09:53:17 18.6 C 64 %
291 02-06-2017 10:05:17 18.6 C 64 %
292 02-06-2017 10:17:17 18.6 C 64 %
293 02-06-2017 10:29:17 18.6 C 64 %
294 02-06-2017 10:41:17 18.6 C 64 %
295 02-06-2017 10:53:16 18.7 C 64 %
296 02-06-2017 11:05:18 18.7 C 64 %
297 02-06-2017 11:17:17 18.7 C 64 %
298 02-06-2017 11:29:17 18.7 C 64 %
299 02-06-2017 11:41:17 18.7 C 64 %
300 02-06-2017 11:53:17 18.7 C 64 %
Sensor: Nr:Datum:Temp:Feuchte:
G-T/H 301 02-06-2017 12:05:17 18.7 C 64 %
302 02-06-2017 12:17:17 18.7 C 64 %
303 02-06-2017 12:29:17 18.7 C 64 %
304 02-06-2017 12:41:17 18.8 C 64 %
305 02-06-2017 12:53:17 18.8 C 64 %
306 02-06-2017 13:05:17 18.8 C 64 %
307 02-06-2017 13:17:17 18.9 C 64 %
308 02-06-2017 13:29:17 18.9 C 64 %
309 02-06-2017 13:41:17 18.9 C 64 %
310 02-06-2017 13:53:17 19 C 63 %
311 02-06-2017 14:05:17 20.7 C 66 %
312 02-06-2017 14:17:17 21.1 C 68 %
313 02-06-2017 14:29:17 21.1 C 67 %
314 02-06-2017 14:41:17 21.1 C 64 %
315 02-06-2017 14:53:17 21.2 C 63 %
316 02-06-2017 15:05:17 21 C 63 %
317 02-06-2017 15:17:17 21 C 63 %
318 02-06-2017 15:29:17 20.8 C 64 %
319 02-06-2017 15:41:17 20.8 C 64 %
320 02-06-2017 15:53:17 20.7 C 64 %
321 02-06-2017 16:05:17 20.7 C 64 %
322 02-06-2017 16:17:17 20.6 C 64 %
323 02-06-2017 16:29:17 20.6 C 64 %
324 02-06-2017 16:41:17 20.5 C 64 %
325 02-06-2017 16:53:17 20.4 C 64 %
Sensor: Nr:Datum:Temp:Feuchte:
G-T/H 326 02-06-2017 17:05:17 20.4 C 64 %
327 02-06-2017 17:17:17 20.4 C 65 %
328 02-06-2017 17:29:17 20.4 C 65 %
329 02-06-2017 17:41:17 20.4 C 65 %
330 02-06-2017 17:53:17 20.4 C 65 %
331 02-06-2017 18:05:17 20.3 C 65 %
332 02-06-2017 18:17:17 20.3 C 65 %
333 02-06-2017 18:29:17 20.3 C 65 %
334 02-06-2017 18:41:17 20.3 C 65 %
335 02-06-2017 18:53:17 20.2 C 65 %
336 02-06-2017 19:05:17 20.2 C 65 %
337 02-06-2017 19:17:17 20.1 C 65 %
338 02-06-2017 19:29:17 20.1 C 65 %
339 02-06-2017 19:41:17 20.1 C 65 %
340 02-06-2017 19:53:17 20.1 C 65 %
341 02-06-2017 20:05:17 20 C 65 %
342 02-06-2017 20:17:18 20 C 65 %
343 02-06-2017 20:29:18 20 C 65 %
344 02-06-2017 20:41:17 20 C 65 %
345 02-06-2017 20:53:17 20 C 65 %
346 02-06-2017 21:05:18 19.9 C 66 %
347 02-06-2017 21:17:17 19.9 C 66 %
348 02-06-2017 21:29:17 19.9 C 66 %
349 02-06-2017 21:41:17 19.8 C 66 %
350 02-06-2017 21:53:17 19.8 C 66 %
Sensor: Nr:Datum:Temp:Feuchte:
G-T/H 351 02-06-2017 22:05:17 19.8 C 66 %
352 02-06-2017 22:17:17 19.8 C 66 %
353 02-06-2017 22:29:17 19.7 C 66 %
354 02-06-2017 22:41:17 19.7 C 66 %
355 02-06-2017 22:53:17 19.7 C 66 %
356 02-06-2017 23:05:17 19.7 C 66 %
357 02-06-2017 23:17:17 19.6 C 66 %
358 02-06-2017 23:29:17 19.6 C 66 %
359 02-06-2017 23:41:17 19.6 C 66 %
360 02-06-2017 23:53:17 19.6 C 66 %
361 03-06-2017 00:05:17 19.5 C 66 %
362 03-06-2017 00:17:17 19.5 C 66 %
363 03-06-2017 00:29:17 19.5 C 66 %
364 03-06-2017 00:41:17 19.5 C 66 %
365 03-06-2017 00:53:17 19.5 C 66 %
366 03-06-2017 01:05:17 19.4 C 66 %
367 03-06-2017 01:17:17 19.4 C 66 %
368 03-06-2017 01:29:17 19.4 C 66 %
369 03-06-2017 01:41:17 19.3 C 66 %
370 03-06-2017 01:53:17 19.3 C 66 %
371 03-06-2017 02:05:17 19.3 C 66 %
372 03-06-2017 02:17:17 19.3 C 66 %
373 03-06-2017 02:29:17 19.3 C 66 %
374 03-06-2017 02:41:17 19.2 C 66 %
375 03-06-2017 02:53:17 19.2 C 66 %
Sensor: Nr:Datum:Temp:Feuchte:
G-T/H 376 03-06-2017 03:05:17 19.2 C 66 %
377 03-06-2017 03:17:17 19.2 C 66 %
378 03-06-2017 03:29:17 19.2 C 66 %
379 03-06-2017 03:41:17 19.1 C 66 %
380 03-06-2017 03:53:17 19.1 C 67 %
381 03-06-2017 04:05:17 19.1 C 67 %
382 03-06-2017 04:17:17 19.1 C 67 %
383 03-06-2017 04:29:17 19 C 67 %
384 03-06-2017 04:41:17 19 C 67 %
385 03-06-2017 04:53:17 19 C 67 %
386 03-06-2017 05:05:17 19 C 67 %
387 03-06-2017 05:17:17 19 C 67 %
388 03-06-2017 05:29:17 18.9 C 68 %
389 03-06-2017 05:41:17 18.9 C 68 %
390 03-06-2017 05:53:17 18.9 C 68 %
391 03-06-2017 06:05:17 18.9 C 68 %
392 03-06-2017 06:17:17 18.9 C 68 %
393 03-06-2017 06:29:17 18.9 C 68 %
394 03-06-2017 06:41:17 18.9 C 68 %
395 03-06-2017 06:53:17 18.9 C 68 %
396 03-06-2017 07:05:17 18.8 C 68 %
397 03-06-2017 07:17:17 18.8 C 68 %
398 03-06-2017 07:29:17 18.8 C 68 %
399 03-06-2017 07:41:17 18.8 C 68 %
400 03-06-2017 07:53:17 18.8 C 68 %
Sensor: Nr:Datum:Temp:Feuchte:
G-T/H 401 03-06-2017 08:05:17 18.8 C 68 %
402 03-06-2017 08:17:17 18.8 C 68 %
403 03-06-2017 08:29:17 18.7 C 68 %
404 03-06-2017 08:41:17 18.7 C 68 %
405 03-06-2017 08:53:17 18.7 C 68 %
406 03-06-2017 09:05:17 18.7 C 68 %
407 03-06-2017 09:17:17 18.7 C 68 %
408 03-06-2017 09:29:17 18.7 C 68 %
409 03-06-2017 09:41:17 18.7 C 68 %
410 03-06-2017 09:53:17 18.7 C 68 %
411 03-06-2017 10:05:17 18.7 C 68 %
412 03-06-2017 10:17:17 18.7 C 68 %
413 03-06-2017 10:29:17 18.7 C 68 %
414 03-06-2017 10:41:17 18.7 C 68 %
415 03-06-2017 10:53:17 18.7 C 68 %
416 03-06-2017 11:05:17 18.7 C 68 %
417 03-06-2017 11:17:17 18.7 C 68 %
418 03-06-2017 11:29:17 18.7 C 68 %
419 03-06-2017 11:41:17 18.7 C 68 %
420 03-06-2017 11:53:17 18.7 C 68 %
421 03-06-2017 12:05:17 18.7 C 68 %
422 03-06-2017 12:17:17 18.7 C 68 %
423 03-06-2017 12:29:17 18.7 C 68 %
424 03-06-2017 12:41:18 18.8 C 68 %
425 03-06-2017 12:53:17 18.7 C 68 %
Sensor: Nr:Datum:Temp:Feuchte:
G-T/H 426 03-06-2017 13:05:17 18.9 C 69 %
427 03-06-2017 13:17:17 18.9 C 69 %
428 03-06-2017 13:29:17 18.9 C 69 %
429 03-06-2017 13:41:17 18.8 C 69 %
430 03-06-2017 13:53:17 18.8 C 69 %
431 03-06-2017 14:05:17 18.8 C 69 %
432 03-06-2017 14:17:17 18.8 C 69 %
433 03-06-2017 14:29:17 18.8 C 69 %
434 03-06-2017 14:41:17 18.8 C 69 %
435 03-06-2017 14:53:17 18.8 C 69 %
436 03-06-2017 15:05:17 18.8 C 69 %
437 03-06-2017 15:17:17 18.9 C 69 %
438 03-06-2017 15:29:17 18.9 C 69 %
439 03-06-2017 15:41:17 18.9 C 69 %
440 03-06-2017 15:53:17 18.9 C 69 %
441 03-06-2017 16:05:17 18.9 C 69 %
442 03-06-2017 16:17:17 18.9 C 69 %
443 03-06-2017 16:29:17 18.9 C 69 %
444 03-06-2017 16:41:17 18.9 C 69 %
445 03-06-2017 16:53:17 19 C 68 %
446 03-06-2017 17:05:17 19 C 68 %
447 03-06-2017 17:17:17 19 C 68 %
448 03-06-2017 17:29:17 19 C 68 %
449 03-06-2017 17:41:17 19 C 68 %
450 03-06-2017 17:53:17 19 C 68 %
Sensor: Nr:Datum:Temp:Feuchte:
G-T/H 451 03-06-2017 18:05:17 19 C 68 %
452 03-06-2017 18:17:17 19 C 68 %
453 03-06-2017 18:29:17 19.1 C 68 %
454 03-06-2017 18:41:17 19.1 C 69 %
455 03-06-2017 18:53:17 19.1 C 69 %
456 03-06-2017 19:05:17 19.1 C 69 %
457 03-06-2017 19:17:17 19.1 C 69 %
458 03-06-2017 19:29:17 19.1 C 69 %
459 03-06-2017 19:41:17 19.1 C 69 %
460 03-06-2017 19:53:17 19.1 C 69 %
461 03-06-2017 20:05:17 19.1 C 69 %
462 03-06-2017 20:17:17 19.1 C 69 %
463 03-06-2017 20:29:17 19.1 C 69 %
464 03-06-2017 20:41:17 19 C 69 %
465 03-06-2017 20:53:17 19 C 69 %
466 03-06-2017 21:05:17 19 C 69 %
467 03-06-2017 21:17:17 19 C 69 %
468 03-06-2017 21:29:17 19 C 69 %
469 03-06-2017 21:41:17 19 C 69 %
470 03-06-2017 21:53:17 19 C 69 %
471 03-06-2017 22:05:17 19 C 69 %
472 03-06-2017 22:17:17 19 C 69 %
473 03-06-2017 22:29:17 19 C 69 %
474 03-06-2017 22:41:17 19 C 69 %
475 03-06-2017 22:53:17 18.9 C 70 %
Sensor: Nr:Datum:Temp:Feuchte:
G-T/H 476 03-06-2017 23:05:17 18.9 C 70 %
477 03-06-2017 23:17:17 18.9 C 70 %
478 03-06-2017 23:29:17 18.9 C 70 %
479 03-06-2017 23:41:17 18.9 C 70 %
480 03-06-2017 23:53:17 18.9 C 70 %
481 04-06-2017 00:05:17 18.9 C 70 %
482 04-06-2017 00:17:17 18.9 C 70 %
483 04-06-2017 00:29:17 18.9 C 70 %
484 04-06-2017 00:41:17 18.8 C 70 %
485 04-06-2017 00:53:17 18.9 C 70 %
486 04-06-2017 01:05:17 18.8 C 70 %
487 04-06-2017 01:17:17 18.8 C 70 %
488 04-06-2017 01:29:17 18.8 C 70 %
489 04-06-2017 01:41:17 18.8 C 70 %
490 04-06-2017 01:53:17 18.8 C 70 %
491 04-06-2017 02:05:17 18.7 C 70 %
492 04-06-2017 02:17:17 18.7 C 70 %
493 04-06-2017 02:29:17 18.7 C 70 %
494 04-06-2017 02:41:17 18.7 C 70 %
495 04-06-2017 02:53:17 18.7 C 70 %
496 04-06-2017 03:05:17 18.7 C 70 %
497 04-06-2017 03:17:17 18.6 C 69 %
498 04-06-2017 03:29:17 18.6 C 69 %
499 04-06-2017 03:41:17 18.6 C 69 %
500 04-06-2017 03:53:17 18.6 C 69 %
Sensor: Nr:Datum:Temp:Feuchte:
G-T/H 501 04-06-2017 04:05:17 18.6 C 69 %
502 04-06-2017 04:17:18 18.5 C 69 %
503 04-06-2017 04:29:18 18.5 C 69 %
504 04-06-2017 04:41:17 18.5 C 69 %
505 04-06-2017 04:53:17 18.5 C 69 %
506 04-06-2017 05:05:17 18.4 C 69 %
507 04-06-2017 05:17:17 18.4 C 69 %
508 04-06-2017 05:29:17 18.4 C 69 %
509 04-06-2017 05:41:17 18.4 C 69 %
510 04-06-2017 05:53:17 18.4 C 69 %
511 04-06-2017 06:05:17 18.3 C 69 %
512 04-06-2017 06:17:17 18.3 C 69 %
513 04-06-2017 06:29:17 18.3 C 69 %
514 04-06-2017 06:41:17 18.3 C 69 %
515 04-06-2017 06:53:16 18.3 C 69 %
516 04-06-2017 07:05:17 18.3 C 69 %
517 04-06-2017 07:17:17 18.3 C 69 %
518 04-06-2017 07:29:17 18.2 C 69 %
519 04-06-2017 07:41:17 18.2 C 69 %
520 04-06-2017 07:53:17 18.2 C 69 %
521 04-06-2017 08:05:17 18.2 C 69 %
522 04-06-2017 08:17:17 18.2 C 69 %
523 04-06-2017 08:29:17 18.1 C 69 %
524 04-06-2017 08:41:17 18.1 C 69 %
525 04-06-2017 08:53:17 18.1 C 69 %
Sensor: Nr:Datum:Temp:Feuchte:
G-T/H 526 04-06-2017 09:05:17 18.1 C 69 %
527 04-06-2017 09:17:17 18.1 C 69 %
528 04-06-2017 09:29:17 18.1 C 69 %
529 04-06-2017 09:41:17 18.1 C 69 %
530 04-06-2017 09:53:17 18.1 C 69 %
531 04-06-2017 10:05:17 18 C 69 %
532 04-06-2017 10:17:17 18.1 C 69 %
533 04-06-2017 10:29:17 18 C 69 %
534 04-06-2017 10:41:17 18 C 69 %
535 04-06-2017 10:53:17 18 C 69 %
536 04-06-2017 11:05:17 18 C 69 %
537 04-06-2017 11:17:17 18 C 69 %
538 04-06-2017 11:29:17 18 C 69 %
539 04-06-2017 11:41:18 18 C 69 %
540 04-06-2017 11:53:17 18 C 69 %
541 04-06-2017 12:05:17 18 C 69 %
542 04-06-2017 12:17:16 18.1 C 68 %
543 04-06-2017 12:29:16 18 C 68 %
544 04-06-2017 12:41:17 18 C 68 %
545 04-06-2017 12:53:17 18 C 68 %
546 04-06-2017 13:05:17 18 C 68 %
547 04-06-2017 13:17:17 18 C 68 %
548 04-06-2017 13:29:17 18.1 C 68 %
549 04-06-2017 13:41:17 18.1 C 68 %
550 04-06-2017 13:53:17 18 C 68 %
Sensor: Nr:Datum:Temp:Feuchte:
G-T/H 551 04-06-2017 14:05:17 18.1 C 68 %
552 04-06-2017 14:17:17 18.1 C 68 %
553 04-06-2017 14:29:17 18.1 C 68 %
554 04-06-2017 14:41:17 18.1 C 68 %
555 04-06-2017 14:53:17 18.1 C 68 %
556 04-06-2017 15:05:17 18.1 C 68 %
557 04-06-2017 15:17:17 18.1 C 67 %
558 04-06-2017 15:29:17 18.1 C 67 %
559 04-06-2017 15:41:17 18.1 C 67 %
560 04-06-2017 15:53:17 18.1 C 66 %
561 04-06-2017 16:05:17 18.1 C 66 %
562 04-06-2017 16:17:17 18.1 C 66 %
563 04-06-2017 16:29:17 18.1 C 66 %
564 04-06-2017 16:41:17 18.2 C 66 %
565 04-06-2017 16:53:17 18.2 C 66 %
566 04-06-2017 17:05:17 18.2 C 66 %
567 04-06-2017 17:17:17 18.2 C 66 %
568 04-06-2017 17:29:17 18.2 C 67 %
569 04-06-2017 17:41:18 18.2 C 66 %
570 04-06-2017 17:53:17 18.3 C 67 %
571 04-06-2017 18:05:17 18.2 C 67 %
572 04-06-2017 18:17:17 18.2 C 67 %
573 04-06-2017 18:29:17 18.2 C 67 %
574 04-06-2017 18:41:17 18.2 C 67 %
575 04-06-2017 18:53:17 18.2 C 66 %
Sensor: Nr:Datum:Temp:Feuchte:
G-T/H 576 04-06-2017 19:05:18 18.2 C 66 %
577 04-06-2017 19:17:17 18.2 C 66 %
578 04-06-2017 19:29:17 18.2 C 66 %
579 04-06-2017 19:41:17 18.2 C 66 %
580 04-06-2017 19:53:17 18.2 C 66 %
581 04-06-2017 20:05:17 18.2 C 66 %
582 04-06-2017 20:17:17 18.1 C 66 %
583 04-06-2017 20:29:17 18.2 C 67 %
584 04-06-2017 20:41:17 18.1 C 67 %
585 04-06-2017 20:53:17 18.1 C 67 %
586 04-06-2017 21:05:17 18.1 C 67 %
587 04-06-2017 21:17:16 18.1 C 67 %
588 04-06-2017 21:29:17 18.1 C 67 %
589 04-06-2017 21:41:17 18.1 C 67 %
590 04-06-2017 21:53:17 18 C 67 %
591 04-06-2017 22:05:17 18.1 C 67 %
592 04-06-2017 22:17:17 18 C 67 %
593 04-06-2017 22:29:17 18 C 67 %
594 04-06-2017 22:41:17 18 C 68 %
595 04-06-2017 22:53:17 18 C 68 %
596 04-06-2017 23:05:17 17.9 C 69 %
597 04-06-2017 23:17:17 17.9 C 69 %
598 04-06-2017 23:29:17 17.9 C 69 %
599 04-06-2017 23:41:17 17.9 C 69 %
600 04-06-2017 23:53:17 17.9 C 69 %
Sensor: Nr:Datum:Temp:Feuchte:
G-T/H 601 05-06-2017 00:05:17 17.8 C 69 %
602 05-06-2017 00:17:17 17.8 C 69 %
603 05-06-2017 00:29:17 17.8 C 69 %
604 05-06-2017 00:41:17 17.8 C 69 %
605 05-06-2017 00:53:17 17.8 C 69 %
606 05-06-2017 01:05:17 17.8 C 69 %
607 05-06-2017 01:17:17 17.7 C 69 %
608 05-06-2017 01:29:17 17.7 C 69 %
609 05-06-2017 01:41:17 17.7 C 69 %
610 05-06-2017 01:53:17 17.7 C 69 %
611 05-06-2017 02:05:17 17.6 C 69 %
612 05-06-2017 02:17:17 17.6 C 69 %
613 05-06-2017 02:29:17 17.6 C 69 %
614 05-06-2017 02:41:17 17.5 C 69 %
615 05-06-2017 02:53:17 17.5 C 69 %
616 05-06-2017 03:05:17 17.5 C 69 %
617 05-06-2017 03:17:17 17.5 C 69 %
618 05-06-2017 03:29:17 17.5 C 69 %
619 05-06-2017 03:41:17 17.4 C 69 %
620 05-06-2017 03:53:17 17.4 C 69 %
621 05-06-2017 04:05:17 17.4 C 69 %
622 05-06-2017 04:17:17 17.2 C 68 %
623 05-06-2017 04:29:17 17.1 C 67 %
624 05-06-2017 04:41:17 17 C 66 %
625 05-06-2017 04:53:17 17 C 66 %
Sensor: Nr:Datum:Temp:Feuchte:
G-T/H 626 05-06-2017 05:05:17 17 C 66 %
627 05-06-2017 05:17:17 17.1 C 66 %
628 05-06-2017 05:29:18 17.1 C 66 %
629 05-06-2017 05:41:17 17 C 67 %
630 05-06-2017 05:53:17 17 C 67 %
631 05-06-2017 06:05:17 17 C 67 %
632 05-06-2017 06:17:17 17 C 67 %
633 05-06-2017 06:29:17 17 C 67 %
634 05-06-2017 06:41:17 17 C 67 %
635 05-06-2017 06:53:17 17 C 67 %
636 05-06-2017 07:05:17 17 C 67 %
637 05-06-2017 07:17:17 16.9 C 68 %
638 05-06-2017 07:29:17 16.9 C 68 %
639 05-06-2017 07:41:17 16.9 C 69 %
640 05-06-2017 07:53:17 16.8 C 69 %
641 05-06-2017 08:05:17 16.9 C 69 %
642 05-06-2017 08:17:17 16.9 C 69 %
643 05-06-2017 08:29:17 16.8 C 69 %
644 05-06-2017 08:41:17 16.8 C 69 %
645 05-06-2017 08:53:17 16.8 C 69 %
646 05-06-2017 09:05:17 16.8 C 69 %
647 05-06-2017 09:17:17 16.8 C 69 %
648 05-06-2017 09:29:17 16.7 C 68 %
649 05-06-2017 09:41:17 16.8 C 68 %
650 05-06-2017 09:53:17 16.8 C 68 %
Sensor: Nr:Datum:Temp:Feuchte:
G-T/H 651 05-06-2017 10:05:17 16.8 C 68 %
652 05-06-2017 10:17:17 16.8 C 68 %
653 05-06-2017 10:29:17 16.8 C 68 %
654 05-06-2017 10:41:17 16.8 C 68 %
655 05-06-2017 10:53:17 16.8 C 68 %
656 05-06-2017 11:05:17 16.8 C 68 %
657 05-06-2017 11:17:17 16.8 C 68 %
658 05-06-2017 11:29:17 16.8 C 68 %
659 05-06-2017 11:41:17 16.8 C 68 %
660 05-06-2017 11:53:17 16.8 C 68 %
661 05-06-2017 12:05:17 16.8 C 68 %
662 05-06-2017 12:17:17 16.8 C 68 %
663 05-06-2017 12:29:17 16.8 C 68 %
664 05-06-2017 12:41:17 16.9 C 68 %
665 05-06-2017 12:53:17 16.8 C 68 %
666 05-06-2017 13:05:17 16.9 C 68 %
667 05-06-2017 13:17:17 16.9 C 68 %
668 05-06-2017 13:29:17 16.9 C 68 %
669 05-06-2017 13:41:18 16.9 C 68 %
670 05-06-2017 13:53:17 16.9 C 68 %
671 05-06-2017 14:05:17 16.9 C 68 %
672 05-06-2017 14:17:17 17 C 67 %
673 05-06-2017 14:29:17 17 C 67 %
674 05-06-2017 14:41:17 17 C 67 %
675 05-06-2017 14:53:17 17 C 67 %
Sensor: Nr:Datum:Temp:Feuchte:
G-T/H 676 05-06-2017 15:05:17 17.1 C 67 %
677 05-06-2017 15:17:17 17.1 C 67 %
678 05-06-2017 15:29:17 17.2 C 66 %
679 05-06-2017 15:41:18 18.2 C 66 %
680 05-06-2017 15:53:17 18.8 C 64 %
681 05-06-2017 16:05:17 19 C 62 %
682 05-06-2017 16:17:17 19.1 C 60 %
683 05-06-2017 16:29:17 19.5 C 58 %
684 05-06-2017 16:41:17 19.6 C 56 %
685 05-06-2017 16:53:17 19.8 C 54 %
686 05-06-2017 17:05:17 20 C 52 %
687 05-06-2017 17:17:17 20.2 C 42 %
688 05-06-2017 17:29:18 20 C 44 %
689 05-06-2017 17:41:17 19.8 C 47 %
690 05-06-2017 17:53:17 19.7 C 48 %
691 05-06-2017 18:05:17 19.6 C 50 %
692 05-06-2017 18:17:18 19.5 C 50 %
693 05-06-2017 18:29:18 19.3 C 51 %
694 05-06-2017 18:41:17 19.3 C 52 %
695 05-06-2017 18:53:17 19.2 C 53 %
696 05-06-2017 19:05:17 19.2 C 53 %
697 05-06-2017 19:17:17 19.2 C 54 %
698 05-06-2017 19:29:17 19.1 C 54 %
699 05-06-2017 19:41:17 19.1 C 55 %
700 05-06-2017 19:53:17 19.1 C 55 %
Sensor: Nr:Datum:Temp:Feuchte:
G-T/H 701 05-06-2017 20:05:17 19 C 55 %
702 05-06-2017 20:17:17 19 C 56 %
703 05-06-2017 20:29:17 18.9 C 57 %
704 05-06-2017 20:41:18 18.9 C 57 %
705 05-06-2017 20:53:17 18.9 C 58 %
706 05-06-2017 21:05:17 18.8 C 58 %
707 05-06-2017 21:17:16 18.8 C 58 %
708 05-06-2017 21:29:17 18.7 C 58 %
709 05-06-2017 21:41:18 18.7 C 59 %
710 05-06-2017 21:53:17 18.7 C 59 %
711 05-06-2017 22:05:17 18.7 C 59 %
712 05-06-2017 22:17:16 18.6 C 59 %
713 05-06-2017 22:29:17 18.5 C 60 %
714 05-06-2017 22:41:17 18.5 C 60 %
715 05-06-2017 22:53:17 18.5 C 60 %
716 05-06-2017 23:05:17 18.5 C 60 %
717 05-06-2017 23:17:17 18.5 C 60 %
718 05-06-2017 23:29:17 18.4 C 61 %
719 05-06-2017 23:41:17 18.4 C 61 %
720 05-06-2017 23:53:17 18.4 C 61 %
721 06-06-2017 00:05:17 18.3 C 61 %
722 06-06-2017 00:17:16 18.3 C 61 %
723 06-06-2017 00:29:17 18.3 C 61 %
724 06-06-2017 00:41:17 18.3 C 61 %
725 06-06-2017 00:53:17 18.3 C 62 %
Sensor: Nr:Datum:Temp:Feuchte:
G-T/H 726 06-06-2017 01:05:17 18.2 C 62 %
727 06-06-2017 01:17:17 18.2 C 62 %
728 06-06-2017 01:29:17 18.2 C 62 %
729 06-06-2017 01:41:17 18.1 C 62 %
730 06-06-2017 01:53:17 18.1 C 62 %
731 06-06-2017 02:05:17 18.1 C 62 %
732 06-06-2017 02:17:17 18.1 C 62 %
733 06-06-2017 02:29:17 18 C 62 %
734 06-06-2017 02:41:17 18 C 63 %
735 06-06-2017 02:53:17 18 C 63 %
736 06-06-2017 03:05:17 18 C 63 %
737 06-06-2017 03:17:17 17.9 C 64 %
738 06-06-2017 03:29:17 17.9 C 64 %
739 06-06-2017 03:41:17 17.9 C 64 %
740 06-06-2017 03:53:16 17.9 C 64 %
741 06-06-2017 04:05:17 17.8 C 64 %
742 06-06-2017 04:17:17 17.8 C 64 %
743 06-06-2017 04:29:17 17.7 C 65 %
744 06-06-2017 04:41:17 17.7 C 65 %
745 06-06-2017 04:53:17 17.7 C 65 %
746 06-06-2017 05:05:17 17.7 C 65 %
747 06-06-2017 05:17:17 17.7 C 65 %
748 06-06-2017 05:29:17 17.7 C 65 %
749 06-06-2017 05:41:17 17.6 C 65 %
750 06-06-2017 05:53:17 17.6 C 65 %
Sensor: Nr:Datum:Temp:Feuchte:
G-T/H 751 06-06-2017 06:05:17 17.6 C 65 %
752 06-06-2017 06:17:17 17.6 C 65 %
753 06-06-2017 06:29:17 17.6 C 65 %
754 06-06-2017 06:41:17 17.5 C 65 %
755 06-06-2017 06:53:17 17.5 C 65 %
756 06-06-2017 07:05:17 17.5 C 65 %
757 06-06-2017 07:17:17 17.5 C 65 %
758 06-06-2017 07:29:17 17.5 C 65 %
759 06-06-2017 07:41:17 17.5 C 65 %
760 06-06-2017 07:53:17 17.5 C 65 %
761 06-06-2017 08:05:17 17.4 C 65 %
762 06-06-2017 08:17:17 17.4 C 65 %
763 06-06-2017 08:29:17 17.4 C 64 %
764 06-06-2017 08:41:17 17.4 C 64 %
765 06-06-2017 08:53:17 17.4 C 64 %
766 06-06-2017 09:05:17 17.4 C 64 %
767 06-06-2017 09:17:17 17.4 C 64 %
768 06-06-2017 09:29:17 17.3 C 64 %
769 06-06-2017 09:41:17 17.3 C 64 %
770 06-06-2017 09:53:17 17.3 C 64 %
771 06-06-2017 10:05:17 17.3 C 64 %
772 06-06-2017 10:17:17 17.3 C 64 %
773 06-06-2017 10:29:17 17.3 C 64 %
774 06-06-2017 10:41:17 17.3 C 64 %
775 06-06-2017 10:53:17 17.3 C 64 %
Sensor: Nr:Datum:Temp:Feuchte:
G-T/H 776 06-06-2017 11:05:17 17.3 C 64 %
777 06-06-2017 11:17:17 17.4 C 64 %
778 06-06-2017 11:29:17 17.3 C 64 %
779 06-06-2017 11:41:17 17.3 C 64 %
780 06-06-2017 11:53:17 17.3 C 64 %
781 06-06-2017 12:05:17 17.3 C 64 %
782 06-06-2017 12:17:17 17.3 C 64 %
783 06-06-2017 12:29:17 17.3 C 64 %
784 06-06-2017 12:41:17 17.3 C 64 %
785 06-06-2017 12:53:17 17.4 C 64 %
786 06-06-2017 13:05:17 17.4 C 65 %
787 06-06-2017 13:17:17 17.4 C 65 %
788 06-06-2017 13:29:17 17.4 C 65 %
789 06-06-2017 13:41:17 17.4 C 65 %
790 06-06-2017 13:53:17 17.4 C 64 %
791 06-06-2017 14:05:17 17.4 C 64 %
792 06-06-2017 14:17:17 17.4 C 64 %
793 06-06-2017 14:29:17 17.4 C 64 %
794 06-06-2017 14:41:17 17.4 C 64 %
795 06-06-2017 14:53:17 17.4 C 64 %
796 06-06-2017 15:05:17 17.5 C 64 %
797 06-06-2017 15:17:17 17.5 C 64 %
798 06-06-2017 15:29:17 17.5 C 64 %
799 06-06-2017 15:41:17 17.5 C 64 %
800 06-06-2017 15:53:17 17.5 C 63 %
Sensor: Nr:Datum:Temp:Feuchte:
G-T/H 801 06-06-2017 16:05:17 17.5 C 63 %
802 06-06-2017 16:17:18 17.5 C 62 %
803 06-06-2017 16:29:18 17.6 C 61 %
804 06-06-2017 16:41:17 17.6 C 60 %
805 06-06-2017 16:53:17 17.6 C 60 %
806 06-06-2017 17:05:17 17.5 C 60 %
807 06-06-2017 17:17:17 17.5 C 60 %
808 06-06-2017 17:29:17 17.5 C 60 %
809 06-06-2017 17:41:18 17.5 C 61 %
810 06-06-2017 17:53:17 17.5 C 61 %
811 06-06-2017 18:05:17 17.5 C 61 %
812 06-06-2017 18:17:17 17.5 C 61 %
813 06-06-2017 18:29:17 17.6 C 62 %
814 06-06-2017 18:41:17 17.6 C 62 %
815 06-06-2017 18:53:17 17.6 C 62 %
816 06-06-2017 19:05:17 17.6 C 62 %
817 06-06-2017 19:17:17 17.7 C 62 %
818 06-06-2017 19:29:17 17.7 C 62 %
819 06-06-2017 19:41:17 17.6 C 61 %
820 06-06-2017 19:53:17 17.5 C 60 %
821 06-06-2017 20:05:17 17.5 C 60 %
822 06-06-2017 20:17:17 17.4 C 59 %
823 06-06-2017 20:29:17 17.4 C 59 %
824 06-06-2017 20:41:17 17.4 C 60 %
825 06-06-2017 20:53:17 17.3 C 60 %
Sensor: Nr:Datum:Temp:Feuchte:
G-T/H 826 06-06-2017 21:05:17 17.3 C 61 %
827 06-06-2017 21:17:17 17.3 C 61 %
828 06-06-2017 21:29:17 17.2 C 60 %
829 06-06-2017 21:41:17 17.1 C 59 %
830 06-06-2017 21:53:17 17 C 58 %
831 06-06-2017 22:05:17 17.1 C 59 %
832 06-06-2017 22:17:17 17.1 C 59 %
833 06-06-2017 22:29:17 17.1 C 60 %
834 06-06-2017 22:41:17 17.1 C 61 %
835 06-06-2017 22:53:17 17.1 C 61 %
836 06-06-2017 23:05:17 17.1 C 61 %
837 06-06-2017 23:17:17 17 C 60 %
838 06-06-2017 23:29:17 17 C 59 %
839 06-06-2017 23:41:17 16.9 C 59 %
840 06-06-2017 23:53:17 16.9 C 60 %

Legende:
   Min
   Max


Maximal/Minimal-Werte vom 31.05.2017 - 06.06.2017

Sensor Min Max Avg
Temp
(Aussen-T/F)
9.9 °C
06-06-2017  23:53:17
39.2 °C
05-06-2017  18:05:17
18.62 °C
Feuchte
(Aussen-T/F)
20 %
31-05-2017  00:04:17
62 %
05-06-2017  07:41:17
28.94 %
Temp
(G-T/H)
16.3 °C
31-05-2017  06:16:17
21.6 °C
31-05-2017  16:40:18
18.6 °C
Feuchte
(G-T/H)
42 %
05-06-2017  17:17:17
70 %
03-06-2017  22:53:17
63.2 %

Die Daten stammen von einer Davis Vantage Pro 2 Wetter-Station und werden unter Linux mit der Software wview2wettercgi und aufbereitet. Alle Angaben erfolgen ohne Gewähr für ihre Vollständigkeit oder Richtigkeit.
Kontakt: Rainer Krienke krienke@uni-koblenz.de . Meine Webseiten an der Uni Koblenz oder privat.
Version: $Revision: 0.78 $